Wetterdaten: Samstag / Sonntag, 06.05.2018
Datum Zeit Temp. Aussen Temp. o. S. +5cm Feuchte Auss BlattFeu 1 Luftdruck Regen Sonnenschein Regendauer Solar Windben Empfang
05.05.2018 14:00 22,9 C 28,3 C 22,2 C 44 % 0 lf 1022,9 hPa 0,0 l/m 2 min 0 min 867 W/m 29,3 km/h (5 Bft) 95,74 %
05.05.2018 14:02 23,0 C 30,0 C 22,2 C 44 % 0 lf 1022,9 hPa 0,0 l/m 2 min 0 min 868 W/m 24,8 km/h (4 Bft) 93,62 %
05.05.2018 14:04 23,1 C 28,3 C 22,2 C 44 % 0 lf 1022,9 hPa 0,0 l/m 2 min 0 min 867 W/m 20,3 km/h (4 Bft) 95,74 %
05.05.2018 14:06 23,1 C 28,9 C 22,2 C 44 % 0 lf 1022,8 hPa 0,0 l/m 2 min 0 min 865 W/m 22,5 km/h (4 Bft) 95,65 %
05.05.2018 14:08 23,2 C 27,8 C 22,2 C 43 % 0 lf 1022,9 hPa 0,0 l/m 2 min 0 min 862 W/m 22,5 km/h (4 Bft) 95,74 %
05.05.2018 14:10 23,2 C 28,9 C 22,2 C 44 % 0 lf 1022,9 hPa 0,0 l/m 2 min 0 min 861 W/m 24,8 km/h (4 Bft) 95,74 %
05.05.2018 14:12 23,2 C 29,4 C 22,2 C 43 % 0 lf 1022,9 hPa 0,0 l/m 2 min 0 min 860 W/m 20,3 km/h (4 Bft) 93,62 %
05.05.2018 14:14 23,2 C 28,3 C 22,2 C 44 % 0 lf 1022,9 hPa 0,0 l/m 2 min 0 min 859 W/m 22,5 km/h (4 Bft) 95,74 %
05.05.2018 14:16 23,2 C 28,9 C 22,8 C 44 % 0 lf 1022,9 hPa 0,0 l/m 2 min 0 min 858 W/m 31,5 km/h (5 Bft) 95,74 %
05.05.2018 14:18 23,3 C 29,4 C 22,8 C 45 % 0 lf 1022,7 hPa 0,0 l/m 2 min 0 min 857 W/m 22,5 km/h (4 Bft) 95,74 %
05.05.2018 14:20 23,3 C 29,4 C 22,8 C 44 % 0 lf 1022,8 hPa 0,0 l/m 2 min 0 min 853 W/m 36,0 km/h (5 Bft) 95,65 %
05.05.2018 14:22 23,3 C 27,2 C 22,2 C 44 % 0 lf 1022,8 hPa 0,0 l/m 2 min 0 min 851 W/m 33,8 km/h (5 Bft) 95,74 %
05.05.2018 14:24 23,3 C 28,3 C 22,2 C 43 % 0 lf 1022,8 hPa 0,0 l/m 2 min 0 min 850 W/m 24,8 km/h (4 Bft) 97,87 %
05.05.2018 14:26 23,3 C 29,4 C 22,8 C 45 % 0 lf 1022,7 hPa 0,0 l/m 2 min 0 min 849 W/m 24,8 km/h (4 Bft) 95,74 %
05.05.2018 14:28 23,4 C 28,9 C 22,2 C 43 % 0 lf 1022,6 hPa 0,0 l/m 2 min 0 min 849 W/m 27,0 km/h (4 Bft) 97,87 %
05.05.2018 14:30 23,3 C 28,9 C 22,8 C 44 % 0 lf 1022,6 hPa 0,0 l/m 2 min 0 min 846 W/m 33,8 km/h (5 Bft) 97,83 %
05.05.2018 14:32 23,3 C 28,3 C 22,8 C 44 % 0 lf 1022,7 hPa 0,0 l/m 2 min 0 min 845 W/m 29,3 km/h (5 Bft) 97,87 %
05.05.2018 14:34 23,3 C 28,9 C 22,8 C 44 % 0 lf 1022,6 hPa 0,0 l/m 2 min 0 min 843 W/m 27,0 km/h (4 Bft) 97,87 %
05.05.2018 14:36 23,2 C 27,2 C 22,8 C 43 % 0 lf 1022,6 hPa 0,0 l/m 2 min 0 min 840 W/m 31,5 km/h (5 Bft) 97,87 %
05.05.2018 14:38 23,2 C 27,8 C 22,8 C 45 % 0 lf 1022,5 hPa 0,0 l/m 2 min 0 min 838 W/m 29,3 km/h (5 Bft) 97,87 %
05.05.2018 14:40 23,2 C 28,3 C 23,3 C 45 % 0 lf 1022,6 hPa 0,0 l/m 2 min 0 min 833 W/m 29,3 km/h (5 Bft) 97,37 %
05.05.2018 14:42 23,2 C 28,3 C 23,3 C 44 % 0 lf 1022,5 hPa 0,0 l/m 2 min 0 min 833 W/m 36,0 km/h (5 Bft) 97,87 %
05.05.2018 14:44 23,2 C 27,8 C 23,9 C 44 % 0 lf 1022,6 hPa 0,0 l/m 2 min 0 min 832 W/m 36,0 km/h (5 Bft) 97,83 %
05.05.2018 14:46 23,1 C 27,2 C 24,4 C 43 % 0 lf 1022,6 hPa 0,0 l/m 2 min 0 min 831 W/m 31,5 km/h (5 Bft) 95,74 %
05.05.2018 14:48 23,2 C 27,2 C 25,6 C 44 % 0 lf 1022,5 hPa 0,0 l/m 2 min 0 min 830 W/m 27,0 km/h (4 Bft) 100,00 %
05.05.2018 14:50 23,1 C 26,1 C 25,0 C 43 % 0 lf 1022,5 hPa 0,0 l/m 2 min 0 min 825 W/m 29,3 km/h (5 Bft) 100,00 %
05.05.2018 14:52 23,1 C 27,2 C 25,6 C 43 % 0 lf 1022,4 hPa 0,0 l/m 2 min 0 min 822 W/m 18,0 km/h (3 Bft) 97,87 %
05.05.2018 14:54 23,1 C 27,8 C 26,1 C 44 % 0 lf 1022,3 hPa 0,0 l/m 2 min 0 min 821 W/m 20,3 km/h (4 Bft) 100,00 %
05.05.2018 14:56 23,2 C 28,9 C 27,2 C 45 % 0 lf 1022,4 hPa 0,0 l/m 2 min 0 min 817 W/m 18,0 km/h (3 Bft) 97,83 %
05.05.2018 14:58 23,3 C 28,9 C 27,2 C 44 % 0 lf 1022,2 hPa 0,0 l/m 2 min 0 min 816 W/m 24,8 km/h (4 Bft) 100,00 %
05.05.2018 15:00 23,3 C 28,3 C 27,2 C 44 % 0 lf 1022,3 hPa 0,0 l/m 2 min 0 min 813 W/m 33,8 km/h (5 Bft) 100,00 %
05.05.2018 15:02 23,3 C 26,1 C 26,1 C 42 % 0 lf 1022,3 hPa 0,0 l/m 2 min 0 min 811 W/m 33,8 km/h (5 Bft) 100,00 %
05.05.2018 15:04 23,4 C 27,2 C 27,2 C 43 % 0 lf 1022,4 hPa 0,0 l/m 2 min 0 min 809 W/m 33,8 km/h (5 Bft) 100,00 %
05.05.2018 15:06 23,4 C 27,8 C 28,9 C 44 % 0 lf 1022,3 hPa 0,0 l/m 2 min 0 min 806 W/m 24,8 km/h (4 Bft) 100,00 %
05.05.2018 15:08 23,5 C 28,9 C 29,4 C 44 % 0 lf 1022,2 hPa 0,0 l/m 2 min 0 min 805 W/m 24,8 km/h (4 Bft) 100,00 %
05.05.2018 15:10 23,6 C 28,9 C 30,0 C 43 % 0 lf 1022,3 hPa 0,0 l/m 2 min 0 min 803 W/m 27,0 km/h (4 Bft) 97,87 %
05.05.2018 15:12 23,6 C 27,8 C 29,4 C 42 % 0 lf 1022,2 hPa 0,0 l/m 2 min 0 min 798 W/m 33,8 km/h (5 Bft) 97,87 %
05.05.2018 15:14 23,7 C 28,9 C 30,6 C 44 % 0 lf 1022,2 hPa 0,0 l/m 2 min 0 min 795 W/m 24,8 km/h (4 Bft) 100,00 %
05.05.2018 15:16 23,7 C 29,4 C 30,6 C 44 % 0 lf 1022,2 hPa 0,0 l/m 2 min 0 min 791 W/m 24,8 km/h (4 Bft) 100,00 %
05.05.2018 15:18 23,8 C 29,4 C 30,6 C 43 % 0 lf 1022,2 hPa 0,0 l/m 2 min 0 min 790 W/m 27,0 km/h (4 Bft) 97,87 %
05.05.2018 15:20 23,8 C 28,3 C 31,1 C 43 % 0 lf 1022,1 hPa 0,0 l/m 2 min 0 min 784 W/m 31,5 km/h (5 Bft) 97,83 %
05.05.2018 15:22 23,9 C 28,9 C 31,1 C 43 % 0 lf 1022,1 hPa 0,0 l/m 2 min 0 min 781 W/m 27,0 km/h (4 Bft) 98,00 %
05.05.2018 15:24 23,9 C 28,9 C 30,6 C 43 % 0 lf 1022,2 hPa 0,0 l/m 2 min 0 min 780 W/m 24,8 km/h (4 Bft) 97,87 %
05.05.2018 15:26 23,9 C 27,2 C 30,0 C 41 % 0 lf 1022,2 hPa 0,0 l/m 2 min 0 min 780 W/m 29,3 km/h (5 Bft) 97,87 %
05.05.2018 15:28 23,9 C 27,8 C 30,6 C 42 % 0 lf 1022,3 hPa 0,0 l/m 2 min 0 min 773 W/m 33,8 km/h (5 Bft) 95,74 %
05.05.2018 15:30 23,9 C 27,2 C 30,6 C 42 % 0 lf 1022,2 hPa 0,0 l/m 2 min 0 min 768 W/m 24,8 km/h (4 Bft) 97,83 %
05.05.2018 15:32 23,9 C 27,8 C 31,1 C 42 % 0 lf 1022,2 hPa 0,0 l/m 2 min 0 min 766 W/m 27,0 km/h (4 Bft) 97,87 %
05.05.2018 15:34 24,0 C 28,3 C 32,2 C 42 % 0 lf 1022,2 hPa 0,0 l/m 2 min 0 min 766 W/m 29,3 km/h (5 Bft) 97,87 %
05.05.2018 15:36 24,1 C 28,3 C 31,7 C 42 % 0 lf 1022,1 hPa 0,0 l/m 2 min 0 min 762 W/m 31,5 km/h (5 Bft) 97,87 %
05.05.2018 15:38 24,1 C 27,8 C 31,7 C 42 % 0 lf 1022,2 hPa 0,0 l/m 2 min 0 min 759 W/m 27,0 km/h (4 Bft) 95,74 %
05.05.2018 15:40 24,1 C 28,3 C 31,1 C 43 % 0 lf 1022,2 hPa 0,0 l/m 2 min 0 min 757 W/m 31,5 km/h (5 Bft) 97,87 %
05.05.2018 15:42 24,1 C 28,3 C 31,1 C 42 % 0 lf 1022,1 hPa 0,0 l/m 2 min 0 min 749 W/m 27,0 km/h (4 Bft) 97,83 %
05.05.2018 15:44 24,2 C 28,3 C 31,7 C 42 % 0 lf 1022,1 hPa 0,0 l/m 2 min 0 min 746 W/m 22,5 km/h (4 Bft) 95,74 %
05.05.2018 15:46 24,2 C 28,9 C 31,7 C 42 % 0 lf 1022,1 hPa 0,0 l/m 2 min 0 min 744 W/m 29,3 km/h (5 Bft) 95,74 %
05.05.2018 15:48 24,2 C 28,3 C 31,7 C 42 % 0 lf 1022,0 hPa 0,0 l/m 2 min 0 min 742 W/m 29,3 km/h (5 Bft) 95,74 %
05.05.2018 15:50 24,2 C 28,3 C 31,7 C 42 % 0 lf 1022,0 hPa 0,0 l/m 2 min 0 min 737 W/m 27,0 km/h (4 Bft) 93,62 %
05.05.2018 15:52 24,2 C 27,8 C 31,7 C 42 % 0 lf 1022,0 hPa 0,0 l/m 2 min 0 min 734 W/m 29,3 km/h (5 Bft) 97,87 %
05.05.2018 15:54 24,2 C 27,8 C 31,7 C 43 % 0 lf 1022,0 hPa 0,0 l/m 2 min 0 min 731 W/m 29,3 km/h (5 Bft) 97,87 %
05.05.2018 15:56 24,2 C 27,8 C 31,1 C 41 % 0 lf 1021,9 hPa 0,0 l/m 2 min 0 min 727 W/m 29,3 km/h (5 Bft) 97,87 %
05.05.2018 15:58 24,1 C 27,2 C 31,1 C 41 % 0 lf 1021,9 hPa 0,0 l/m 2 min 0 min 723 W/m 33,8 km/h (5 Bft) 97,83 %
05.05.2018 16:00 24,1 C 27,2 C 31,1 C 41 % 0 lf 1022,0 hPa 0,0 l/m 2 min 0 min 717 W/m 24,8 km/h (4 Bft) 97,87 %
05.05.2018 16:02 24,1 C 27,8 C 31,7 C 41 % 0 lf 1021,9 hPa 0,0 l/m 2 min 0 min 715 W/m 24,8 km/h (4 Bft) 95,74 %
05.05.2018 16:04 24,1 C 27,8 C 32,2 C 41 % 0 lf 1021,8 hPa 0,0 l/m 2 min 0 min 711 W/m 27,0 km/h (4 Bft) 97,87 %
05.05.2018 16:06 24,2 C 27,2 C 32,8 C 42 % 0 lf 1021,8 hPa 0,0 l/m 2 min 0 min 707 W/m 20,3 km/h (4 Bft) 97,87 %
05.05.2018 16:08 24,2 C 27,2 C 32,8 C 41 % 0 lf 1021,8 hPa 0,0 l/m 2 min 0 min 703 W/m 18,0 km/h (3 Bft) 95,74 %
05.05.2018 16:10 24,3 C 27,8 C 32,8 C 42 % 0 lf 1021,9 hPa 0,0 l/m 2 min 0 min 699 W/m 27,0 km/h (4 Bft) 95,65 %
05.05.2018 16:12 24,4 C 27,8 C 32,8 C 42 % 0 lf 1021,8 hPa 0,0 l/m 2 min 0 min 694 W/m 20,3 km/h (4 Bft) 95,74 %
05.05.2018 16:14 24,4 C 27,8 C 32,2 C 41 % 0 lf 1021,8 hPa 0,0 l/m 2 min 0 min 690 W/m 20,3 km/h (4 Bft) 93,62 %
05.05.2018 16:16 24,5 C 27,2 C 30,6 C 41 % 0 lf 1021,7 hPa 0,0 l/m 2 min 0 min 685 W/m 22,5 km/h (4 Bft) 93,62 %
05.05.2018 16:18 24,5 C 26,7 C 27,8 C 41 % 0 lf 1021,7 hPa 0,0 l/m 2 min 0 min 682 W/m 31,5 km/h (5 Bft) 95,74 %
05.05.2018 16:20 24,5 C 26,7 C 26,7 C 41 % 0 lf 1021,7 hPa 0,0 l/m 2 min 0 min 675 W/m 22,5 km/h (4 Bft) 95,74 %
05.05.2018 16:22 24,5 C 26,7 C 26,1 C 42 % 0 lf 1021,7 hPa 0,0 l/m 2 min 0 min 673 W/m 22,5 km/h (4 Bft) 93,48 %
05.05.2018 16:24 24,6 C 26,7 C 26,1 C 41 % 0 lf 1021,7 hPa 0,0 l/m 2 min 0 min 670 W/m 22,5 km/h (4 Bft) 95,74 %
05.05.2018 16:26 24,7 C 26,1 C 25,6 C 40 % 0 lf 1021,7 hPa 0,0 l/m 2 min 0 min 664 W/m 31,5 km/h (5 Bft) 95,74 %
05.05.2018 16:28 24,7 C 26,1 C 25,0 C 40 % 0 lf 1021,6 hPa 0,0 l/m 2 min 0 min 661 W/m 29,3 km/h (5 Bft) 95,74 %
05.05.2018 16:30 24,7 C 25,6 C 25,0 C 40 % 0 lf 1021,6 hPa 0,0 l/m 2 min 0 min 656 W/m 24,8 km/h (4 Bft) 95,74 %
05.05.2018 16:32 24,7 C 25,0 C 26,7 C 40 % 0 lf 1021,7 hPa 0,0 l/m 2 min 0 min 651 W/m 22,5 km/h (4 Bft) 91,30 %
05.05.2018 16:34 24,7 C 24,4 C 27,8 C 41 % 0 lf 1021,6 hPa 0,0 l/m 2 min 0 min 648 W/m 33,8 km/h (5 Bft) 95,74 %
05.05.2018 16:36 24,6 C 23,9 C 27,2 C 40 % 0 lf 1021,7 hPa 0,0 l/m 2 min 0 min 645 W/m 31,5 km/h (5 Bft) 95,74 %
05.05.2018 16:38 24,6 C 23,9 C 26,1 C 39 % 0 lf 1021,7 hPa 0,0 l/m 2 min 0 min 640 W/m 22,5 km/h (4 Bft) 95,74 %
05.05.2018 16:40 24,6 C 24,4 C 27,2 C 40 % 0 lf 1021,6 hPa 0,0 l/m 2 min 0 min 635 W/m 15,8 km/h (3 Bft) 95,74 %
05.05.2018 16:42 24,6 C 23,9 C 27,8 C 40 % 0 lf 1021,6 hPa 0,0 l/m 2 min 0 min 629 W/m 29,3 km/h (5 Bft) 97,87 %
05.05.2018 16:44 24,6 C 24,4 C 28,3 C 40 % 0 lf 1021,6 hPa 0,0 l/m 2 min 0 min 624 W/m 24,8 km/h (4 Bft) 95,65 %
05.05.2018 16:46 24,6 C 24,4 C 27,2 C 39 % 0 lf 1021,5 hPa 0,0 l/m 2 min 0 min 621 W/m 27,0 km/h (4 Bft) 97,87 %
05.05.2018 16:48 24,6 C 23,9 C 25,6 C 39 % 0 lf 1021,4 hPa 0,0 l/m 2 min 0 min 615 W/m 29,3 km/h (5 Bft) 95,74 %
05.05.2018 16:50 24,5 C 24,4 C 27,2 C 40 % 0 lf 1021,6 hPa 0,0 l/m 2 min 0 min 612 W/m 24,8 km/h (4 Bft) 93,62 %
05.05.2018 16:52 24,5 C 24,4 C 27,8 C 40 % 0 lf 1021,4 hPa 0,0 l/m 2 min 0 min 607 W/m 20,3 km/h (4 Bft) 100,00 %
05.05.2018 16:54 24,4 C 24,4 C 27,2 C 40 % 0 lf 1021,6 hPa 0,0 l/m 2 min 0 min 601 W/m 24,8 km/h (4 Bft) 97,87 %
05.05.2018 16:56 24,5 C 24,4 C 26,7 C 40 % 0 lf 1021,4 hPa 0,0 l/m 2 min 0 min 595 W/m 27,0 km/h (4 Bft) 100,00 %
05.05.2018 16:58 24,6 C 25,0 C 26,7 C 40 % 0 lf 1021,4 hPa 0,0 l/m 2 min 0 min 590 W/m 20,3 km/h (4 Bft) 95,74 %
05.05.2018 17:00 24,6 C 24,4 C 26,7 C 40 % 0 lf 1021,3 hPa 0,0 l/m 2 min 0 min 586 W/m 18,0 km/h (3 Bft) 97,87 %
05.05.2018 17:02 24,6 C 23,9 C 26,7 C 39 % 0 lf 1021,4 hPa 0,0 l/m 2 min 0 min 581 W/m 29,3 km/h (5 Bft) 100,00 %
05.05.2018 17:04 24,6 C 23,9 C 26,1 C 39 % 0 lf 1021,3 hPa 0,0 l/m 2 min 0 min 577 W/m 11,3 km/h (2 Bft) 97,87 %
05.05.2018 17:06 24,6 C 24,4 C 26,1 C 40 % 0 lf 1021,3 hPa 0,0 l/m 2 min 0 min 572 W/m 20,3 km/h (4 Bft) 97,87 %
05.05.2018 17:08 24,6 C 24,4 C 25,6 C 40 % 0 lf 1021,4 hPa 0,0 l/m 2 min 0 min 568 W/m 27,0 km/h (4 Bft) 95,65 %
05.05.2018 17:10 24,6 C 24,4 C 25,0 C 40 % 0 lf 1021,4 hPa 0,0 l/m 2 min 0 min 563 W/m 29,3 km/h (5 Bft) 100,00 %
05.05.2018 17:12 24,6 C 24,4 C 24,4 C 39 % 0 lf 1021,3 hPa 0,0 l/m 2 min 0 min 556 W/m 20,3 km/h (4 Bft) 97,87 %
05.05.2018 17:14 24,6 C 23,9 C 23,9 C 39 % 0 lf 1021,3 hPa 0,0 l/m 2 min 0 min 552 W/m 36,0 km/h (5 Bft) 97,87 %
05.05.2018 17:16 24,6 C 23,9 C 24,4 C 40 % 0 lf 1021,3 hPa 0,0 l/m 2 min 0 min 544 W/m 20,3 km/h (4 Bft) 95,74 %
05.05.2018 17:18 24,6 C 24,4 C 24,4 C 40 % 0 lf 1021,2 hPa 0,0 l/m 2 min 0 min 537 W/m 22,5 km/h (4 Bft) 100,00 %
05.05.2018 17:20 24,6 C 23,9 C 23,3 C 39 % 0 lf 1021,3 hPa 0,0 l/m 2 min 0 min 535 W/m 33,8 km/h (5 Bft) 93,62 %
05.05.2018 17:22 24,6 C 23,9 C 23,3 C 39 % 0 lf 1021,3 hPa 0,0 l/m 2 min 0 min 530 W/m 22,5 km/h (4 Bft) 95,74 %
05.05.2018 17:24 24,6 C 24,4 C 23,3 C 40 % 0 lf 1021,2 hPa 0,0 l/m 2 min 0 min 526 W/m 22,5 km/h (4 Bft) 95,74 %
05.05.2018 17:26 24,6 C 25,0 C 23,3 C 40 % 0 lf 1021,3 hPa 0,0 l/m 2 min 0 min 522 W/m 20,3 km/h (4 Bft) 95,74 %
05.05.2018 17:28 24,7 C 25,0 C 23,3 C 40 % 0 lf 1021,3 hPa 0,0 l/m 2 min 0 min 515 W/m 20,3 km/h (4 Bft) 95,74 %
05.05.2018 17:30 24,7 C 25,0 C 23,3 C 40 % 0 lf 1021,2 hPa 0,0 l/m 2 min 0 min 508 W/m 18,0 km/h (3 Bft) 95,65 %
05.05.2018 17:32 24,8 C 25,0 C 23,3 C 40 % 0 lf 1021,2 hPa 0,0 l/m 2 min 0 min 503 W/m 18,0 km/h (3 Bft) 97,87 %
05.05.2018 17:34 24,9 C 25,0 C 23,3 C 40 % 0 lf 1021,3 hPa 0,0 l/m 2 min 0 min 498 W/m 33,8 km/h (5 Bft) 93,62 %
05.05.2018 17:36 24,9 C 25,0 C 22,8 C 39 % 0 lf 1021,2 hPa 0,0 l/m 2 min 0 min 493 W/m 27,0 km/h (4 Bft) 95,74 %
05.05.2018 17:38 24,9 C 24,4 C 22,8 C 39 % 0 lf 1021,3 hPa 0,0 l/m 2 min 0 min 488 W/m 24,8 km/h (4 Bft) 95,74 %
05.05.2018 17:40 25,0 C 23,9 C 22,8 C 38 % 0 lf 1021,2 hPa 0,0 l/m 2 min 0 min 482 W/m 29,3 km/h (5 Bft) 95,65 %
05.05.2018 17:42 24,9 C 23,9 C 22,8 C 38 % 0 lf 1021,2 hPa 0,0 l/m 2 min 0 min 477 W/m 24,8 km/h (4 Bft) 95,74 %
05.05.2018 17:44 24,9 C 24,4 C 22,8 C 38 % 0 lf 1021,1 hPa 0,0 l/m 2 min 0 min 472 W/m 11,3 km/h (2 Bft) 95,74 %
05.05.2018 17:46 24,9 C 25,0 C 22,2 C 39 % 0 lf 1021,1 hPa 0,0 l/m 2 min 0 min 468 W/m 18,0 km/h (3 Bft) 95,74 %
05.05.2018 17:48 24,9 C 24,4 C 22,8 C 39 % 0 lf 1021,2 hPa 0,0 l/m 2 min 0 min 462 W/m 29,3 km/h (5 Bft) 93,62 %
05.05.2018 17:50 24,9 C 23,9 C 22,2 C 38 % 0 lf 1021,2 hPa 0,0 l/m 2 min 0 min 456 W/m 22,5 km/h (4 Bft) 93,62 %
05.05.2018 17:52 24,9 C 23,9 C 22,2 C 39 % 0 lf 1021,1 hPa 0,0 l/m 2 min 0 min 449 W/m 18,0 km/h (3 Bft) 95,65 %
05.05.2018 17:54 24,9 C 24,4 C 22,8 C 39 % 0 lf 1021,2 hPa 0,0 l/m 2 min 0 min 444 W/m 18,0 km/h (3 Bft) 95,74 %
05.05.2018 17:56 24,9 C 24,4 C 22,8 C 40 % 0 lf 1021,2 hPa 0,0 l/m 2 min 0 min 438 W/m 18,0 km/h (3 Bft) 95,74 %
05.05.2018 17:58 25,0 C 25,0 C 22,8 C 39 % 0 lf 1021,1 hPa 0,0 l/m 2 min 0 min 432 W/m 20,3 km/h (4 Bft) 95,74 %
05.05.2018 18:00 25,1 C 24,4 C 24,4 C 39 % 0 lf 1021,1 hPa 0,0 l/m 2 min 0 min 429 W/m 31,5 km/h (5 Bft) 95,74 %
05.05.2018 18:02 25,0 C 23,9 C 25,6 C 38 % 0 lf 1021,1 hPa 0,0 l/m 2 min 0 min 424 W/m 22,5 km/h (4 Bft) 97,87 %
05.05.2018 18:04 25,0 C 24,4 C 25,0 C 39 % 0 lf 1021,1 hPa 0,0 l/m 2 min 0 min 417 W/m 20,3 km/h (4 Bft) 97,83 %
05.05.2018 18:08 25,0 C 24,4 C 23,3 C 39 % 0 lf 1021,0 hPa 0,0 l/m 4 min 0 min 408 W/m 22,5 km/h (4 Bft) 97,89 %
05.05.2018 18:10 25,0 C 24,4 C 22,8 C 39 % 0 lf 1021,0 hPa 0,0 l/m 2 min 0 min 399 W/m 18,0 km/h (3 Bft) 100,00 %
05.05.2018 18:12 25,0 C 24,4 C 22,8 C 38 % 0 lf 1021,0 hPa 0,0 l/m 2 min 0 min 395 W/m 22,5 km/h (4 Bft) 95,74 %
05.05.2018 18:14 25,0 C 23,9 C 22,8 C 39 % 0 lf 1021,0 hPa 0,0 l/m 2 min 0 min 389 W/m 27,0 km/h (4 Bft) 100,00 %
05.05.2018 18:16 25,0 C 24,4 C 23,3 C 39 % 0 lf 1021,1 hPa 0,0 l/m 2 min 0 min 384 W/m 18,0 km/h (3 Bft) 100,00 %
05.05.2018 18:18 25,0 C 24,4 C 23,3 C 39 % 0 lf 1021,0 hPa 0,0 l/m 2 min 0 min 379 W/m 24,8 km/h (4 Bft) 97,87 %
05.05.2018 18:20 25,0 C 23,9 C 22,8 C 38 % 0 lf 1021,1 hPa 0,0 l/m 2 min 0 min 371 W/m 24,8 km/h (4 Bft) 97,87 %
05.05.2018 18:22 25,0 C 24,4 C 22,8 C 39 % 0 lf 1021,1 hPa 0,0 l/m 2 min 0 min 366 W/m 33,8 km/h (5 Bft) 100,00 %
05.05.2018 18:24 25,0 C 24,4 C 22,2 C 39 % 0 lf 1021,1 hPa 0,0 l/m 2 min 0 min 360 W/m 18,0 km/h (3 Bft) 100,00 %
05.05.2018 18:26 25,0 C 24,4 C 22,2 C 39 % 0 lf 1021,2 hPa 0,0 l/m 2 min 0 min 354 W/m 27,0 km/h (4 Bft) 100,00 %
05.05.2018 18:28 25,0 C 24,4 C 22,2 C 38 % 0 lf 1021,1 hPa 0,0 l/m 2 min 0 min 350 W/m 24,8 km/h (4 Bft) 100,00 %
05.05.2018 18:30 25,0 C 24,4 C 21,7 C 38 % 0 lf 1021,0 hPa 0,0 l/m 2 min 0 min 345 W/m 24,8 km/h (4 Bft) 100,00 %
05.05.2018 18:32 24,9 C 24,4 C 21,7 C 39 % 0 lf 1021,1 hPa 0,0 l/m 2 min 0 min 338 W/m 20,3 km/h (4 Bft) 100,00 %
05.05.2018 18:34 24,9 C 24,4 C 21,7 C 39 % 0 lf 1021,1 hPa 0,0 l/m 2 min 0 min 333 W/m 18,0 km/h (3 Bft) 100,00 %
05.05.2018 18:36 24,8 C 23,9 C 21,7 C 39 % 0 lf 1021,1 hPa 0,0 l/m 2 min 0 min 327 W/m 27,0 km/h (4 Bft) 100,00 %
05.05.2018 18:38 24,8 C 23,9 C 21,7 C 39 % 0 lf 1021,0 hPa 0,0 l/m 2 min 0 min 321 W/m 31,5 km/h (5 Bft) 100,00 %
05.05.2018 18:40 24,8 C 24,4 C 21,7 C 39 % 0 lf 1021,0 hPa 0,0 l/m 2 min 0 min 315 W/m 20,3 km/h (4 Bft) 97,87 %
05.05.2018 18:42 24,8 C 24,4 C 21,7 C 39 % 0 lf 1021,1 hPa 0,0 l/m 2 min 0 min 310 W/m 20,3 km/h (4 Bft) 97,87 %
05.05.2018 18:44 24,8 C 24,4 C 21,7 C 39 % 0 lf 1021,0 hPa 0,0 l/m 2 min 0 min 305 W/m 22,5 km/h (4 Bft) 95,74 %
05.05.2018 18:46 24,8 C 24,4 C 21,7 C 39 % 0 lf 1021,1 hPa 0,0 l/m 2 min 0 min 298 W/m 22,5 km/h (4 Bft) 97,87 %
05.05.2018 18:48 24,8 C 23,9 C 21,7 C 40 % 0 lf 1021,1 hPa 0,0 l/m 2 min 0 min 291 W/m 13,5 km/h (3 Bft) 97,87 %
05.05.2018 18:50 24,8 C 23,9 C 21,7 C 40 % 0 lf 1021,0 hPa 0,0 l/m 2 min 0 min 284 W/m 22,5 km/h (4 Bft) 97,83 %
05.05.2018 18:52 24,7 C 23,9 C 21,1 C 40 % 0 lf 1020,9 hPa 0,0 l/m 2 min 0 min 279 W/m 27,0 km/h (4 Bft) 95,74 %
05.05.2018 18:54 24,7 C 23,9 C 21,1 C 39 % 0 lf 1020,9 hPa 0,0 l/m 2 min 0 min 272 W/m 20,3 km/h (4 Bft) 95,74 %
05.05.2018 18:56 24,7 C 23,9 C 21,1 C 40 % 0 lf 1020,9 hPa 0,0 l/m 2 min 0 min 267 W/m 18,0 km/h (3 Bft) 97,87 %
05.05.2018 18:58 24,7 C 23,9 C 21,1 C 39 % 0 lf 1020,8 hPa 0,0 l/m 2 min 0 min 260 W/m 38,3 km/h (5 Bft) 95,74 %
05.05.2018 19:00 24,7 C 23,3 C 21,1 C 39 % 0 lf 1020,9 hPa 0,0 l/m 2 min 0 min 252 W/m 27,0 km/h (4 Bft) 95,74 %
05.05.2018 19:02 24,6 C 23,3 C 21,1 C 39 % 0 lf 1020,9 hPa 0,0 l/m 2 min 0 min 248 W/m 24,8 km/h (4 Bft) 95,65 %
05.05.2018 19:04 24,6 C 23,3 C 21,1 C 39 % 0 lf 1020,9 hPa 0,0 l/m 2 min 0 min 240 W/m 22,5 km/h (4 Bft) 95,74 %
05.05.2018 19:06 24,5 C 23,3 C 21,1 C 39 % 0 lf 1020,9 hPa 0,0 l/m 2 min 0 min 235 W/m 20,3 km/h (4 Bft) 95,74 %
05.05.2018 19:08 24,5 C 23,3 C 21,1 C 39 % 0 lf 1020,9 hPa 0,0 l/m 2 min 0 min 226 W/m 27,0 km/h (4 Bft) 95,74 %
05.05.2018 19:10 24,4 C 23,3 C 21,1 C 39 % 0 lf 1020,8 hPa 0,0 l/m 2 min 0 min 219 W/m 22,5 km/h (4 Bft) 93,88 %
05.05.2018 19:12 24,4 C 23,3 C 21,1 C 39 % 0 lf 1020,9 hPa 0,0 l/m 2 min 0 min 212 W/m 29,3 km/h (5 Bft) 95,74 %
05.05.2018 19:14 24,3 C 23,3 C 21,1 C 39 % 0 lf 1021,0 hPa 0,0 l/m 2 min 0 min 207 W/m 22,5 km/h (4 Bft) 95,74 %
05.05.2018 19:16 24,3 C 23,3 C 21,1 C 39 % 0 lf 1020,9 hPa 0,0 l/m 2 min 0 min 199 W/m 22,5 km/h (4 Bft) 91,30 %
05.05.2018 19:18 24,3 C 23,3 C 20,6 C 39 % 0 lf 1020,9 hPa 0,0 l/m 2 min 0 min 193 W/m 24,8 km/h (4 Bft) 95,74 %
05.05.2018 19:20 24,2 C 23,3 C 20,6 C 40 % 0 lf 1020,9 hPa 0,0 l/m 2 min 0 min 187 W/m 15,8 km/h (3 Bft) 95,74 %
05.05.2018 19:22 24,2 C 23,3 C 20,6 C 40 % 0 lf 1020,9 hPa 0,0 l/m 2 min 0 min 180 W/m 24,8 km/h (4 Bft) 97,87 %
05.05.2018 19:24 24,2 C 23,3 C 20,6 C 40 % 0 lf 1021,0 hPa 0,0 l/m 2 min 0 min 173 W/m 15,8 km/h (3 Bft) 97,87 %
05.05.2018 19:26 24,1 C 22,8 C 20,6 C 40 % 0 lf 1021,0 hPa 0,0 l/m 2 min 0 min 166 W/m 20,3 km/h (4 Bft) 93,62 %
05.05.2018 19:28 24,1 C 22,8 C 20,6 C 40 % 0 lf 1020,9 hPa 0,0 l/m 2 min 0 min 160 W/m 20,3 km/h (4 Bft) 97,83 %
05.05.2018 19:30 24,1 C 22,8 C 20,6 C 41 % 0 lf 1020,9 hPa 0,0 l/m 2 min 0 min 154 W/m 18,0 km/h (3 Bft) 95,74 %
05.05.2018 19:32 24,0 C 22,8 C 20,6 C 40 % 0 lf 1020,9 hPa 0,0 l/m 2 min 0 min 147 W/m 15,8 km/h (3 Bft) 93,62 %
05.05.2018 19:34 24,0 C 22,8 C 20,6 C 41 % 0 lf 1020,9 hPa 0,0 l/m 2 min 0 min 141 W/m 22,5 km/h (4 Bft) 95,74 %
05.05.2018 19:36 23,9 C 22,8 C 20,6 C 41 % 0 lf 1020,9 hPa 0,0 l/m 2 min 0 min 136 W/m 18,0 km/h (3 Bft) 95,74 %
05.05.2018 19:38 23,9 C 22,8 C 21,7 C 41 % 0 lf 1020,9 hPa 0,0 l/m 2 min 0 min 130 W/m 11,3 km/h (2 Bft) 95,74 %
05.05.2018 19:40 23,9 C 22,8 C 22,8 C 41 % 0 lf 1020,9 hPa 0,0 l/m 2 min 0 min 124 W/m 15,8 km/h (3 Bft) 95,65 %
05.05.2018 19:42 23,8 C 22,8 C 23,3 C 41 % 0 lf 1020,9 hPa 0,0 l/m 2 min 0 min 118 W/m 15,8 km/h (3 Bft) 95,74 %
05.05.2018 19:44 23,8 C 22,2 C 23,9 C 41 % 0 lf 1020,9 hPa 0,0 l/m 2 min 0 min 113 W/m 18,0 km/h (3 Bft) 97,87 %
05.05.2018 19:46 23,7 C 22,2 C 24,4 C 41 % 0 lf 1020,9 hPa 0,0 l/m 2 min 0 min 106 W/m 20,3 km/h (4 Bft) 95,74 %
05.05.2018 19:48 23,7 C 22,2 C 24,4 C 41 % 0 lf 1020,8 hPa 0,0 l/m 2 min 0 min 102 W/m 22,5 km/h (4 Bft) 95,74 %
05.05.2018 19:50 23,6 C 22,2 C 24,4 C 41 % 0 lf 1020,8 hPa 0,0 l/m 2 min 0 min 96 W/m 22,5 km/h (4 Bft) 93,62 %
05.05.2018 19:52 23,6 C 21,7 C 23,9 C 41 % 0 lf 1020,9 hPa 0,0 l/m 2 min 0 min 91 W/m 24,8 km/h (4 Bft) 97,83 %
05.05.2018 19:54 23,4 C 21,7 C 23,9 C 41 % 0 lf 1020,9 hPa 0,0 l/m 2 min 0 min 87 W/m 15,8 km/h (3 Bft) 95,74 %
05.05.2018 19:56 23,4 C 21,7 C 23,3 C 42 % 0 lf 1020,9 hPa 0,0 l/m 2 min 0 min 81 W/m 15,8 km/h (3 Bft) 97,87 %
05.05.2018 19:58 23,3 C 21,7 C 22,8 C 41 % 0 lf 1020,9 hPa 0,0 l/m 2 min 0 min 76 W/m 27,0 km/h (4 Bft) 95,74 %
05.05.2018 20:00 23,2 C 21,7 C 21,7 C 42 % 0 lf 1020,9 hPa 0,0 l/m 2 min 0 min 72 W/m 22,5 km/h (4 Bft) 97,87 %
05.05.2018 20:02 23,2 C 21,1 C 21,1 C 41 % 0 lf 1020,9 hPa 0,0 l/m 0 min 0 min 67 W/m 24,8 km/h (4 Bft) 97,87 %
05.05.2018 20:04 23,1 C 21,1 C 20,6 C 42 % 0 lf 1020,8 hPa 0,0 l/m 0 min 0 min 62 W/m 20,3 km/h (4 Bft) 93,48 %
05.05.2018 20:06 22,9 C 21,1 C 19,4 C 42 % 0 lf 1020,8 hPa 0,0 l/m 0 min 0 min 59 W/m 20,3 km/h (4 Bft) 97,87 %
05.05.2018 20:08 22,8 C 21,1 C 19,4 C 42 % 0 lf 1020,9 hPa 0,0 l/m 0 min 0 min 55 W/m 31,5 km/h (5 Bft) 97,87 %
05.05.2018 20:10 22,7 C 20,6 C 18,9 C 42 % 0 lf 1021,0 hPa 0,0 l/m 0 min 0 min 52 W/m 22,5 km/h (4 Bft) 100,00 %
05.05.2018 20:12 22,6 C 20,6 C 18,9 C 43 % 0 lf 1021,0 hPa 0,0 l/m 0 min 0 min 47 W/m 18,0 km/h (3 Bft) 95,74 %
05.05.2018 20:14 22,5 C 20,6 C 18,3 C 43 % 0 lf 1020,9 hPa 0,0 l/m 0 min 0 min 43 W/m 18,0 km/h (3 Bft) 97,87 %
05.05.2018 20:16 22,4 C 20,6 C 18,3 C 43 % 0 lf 1020,9 hPa 0,0 l/m 0 min 0 min 39 W/m 24,8 km/h (4 Bft) 100,00 %
05.05.2018 20:18 22,3 C 20,0 C 18,3 C 44 % 0 lf 1020,9 hPa 0,0 l/m 0 min 0 min 36 W/m 22,5 km/h (4 Bft) 100,00 %
05.05.2018 20:20 22,2 C 20,0 C 18,3 C 44 % 0 lf 1020,9 hPa 0,0 l/m 0 min 0 min 33 W/m 20,3 km/h (4 Bft) 97,87 %
05.05.2018 20:22 22,1 C 20,0 C 17,8 C 44 % 0 lf 1021,0 hPa 0,0 l/m 0 min 0 min 30 W/m 20,3 km/h (4 Bft) 97,87 %
05.05.2018 20:24 21,9 C 20,0 C 17,8 C 44 % 0 lf 1021,0 hPa 0,0 l/m 0 min 0 min 26 W/m 15,8 km/h (3 Bft) 100,00 %
05.05.2018 20:26 21,9 C 20,0 C 17,8 C 44 % 0 lf 1021,0 hPa 0,0 l/m 0 min 0 min 26 W/m 20,3 km/h (4 Bft) 100,00 %
05.05.2018 20:28 21,8 C 20,0 C 17,2 C 45 % 0 lf 1021,0 hPa 0,0 l/m 0 min 0 min 24 W/m 18,0 km/h (3 Bft) 100,00 %
05.05.2018 20:30 21,7 C 19,4 C 17,2 C 45 % 0 lf 1021,1 hPa 0,0 l/m 0 min 0 min 22 W/m 18,0 km/h (3 Bft) 97,87 %
05.05.2018 20:32 21,5 C 19,4 C 17,2 C 45 % 0 lf 1021,0 hPa 0,0 l/m 0 min 0 min 21 W/m 20,3 km/h (4 Bft) 95,74 %
05.05.2018 20:34 21,4 C 19,4 C 17,2 C 45 % 0 lf 1021,1 hPa 0,0 l/m 0 min 0 min 19 W/m 22,5 km/h (4 Bft) 95,74 %
05.05.2018 20:36 21,3 C 19,4 C 17,2 C 46 % 0 lf 1021,1 hPa 0,0 l/m 0 min 0 min 19 W/m 15,8 km/h (3 Bft) 97,87 %
05.05.2018 20:38 21,2 C 19,4 C 17,2 C 46 % 0 lf 1021,1 hPa 0,0 l/m 0 min 0 min 18 W/m 18,0 km/h (3 Bft) 97,83 %
05.05.2018 20:40 21,1 C 19,4 C 17,2 C 46 % 0 lf 1021,1 hPa 0,0 l/m 0 min 0 min 18 W/m 18,0 km/h (3 Bft) 97,92 %
05.05.2018 20:42 21,0 C 18,9 C 17,2 C 47 % 0 lf 1021,1 hPa 0,0 l/m 0 min 0 min 16 W/m 22,5 km/h (4 Bft) 95,74 %
05.05.2018 20:44 20,9 C 18,9 C 17,2 C 47 % 0 lf 1021,1 hPa 0,0 l/m 0 min 0 min 16 W/m 18,0 km/h (3 Bft) 97,87 %
05.05.2018 20:46 20,8 C 18,9 C 16,7 C 47 % 0 lf 1021,1 hPa 0,0 l/m 0 min 0 min 14 W/m 18,0 km/h (3 Bft) 95,65 %
05.05.2018 20:48 20,8 C 18,9 C 16,7 C 47 % 0 lf 1021,1 hPa 0,0 l/m 0 min 0 min 13 W/m 18,0 km/h (3 Bft) 97,87 %
05.05.2018 20:50 20,7 C 18,9 C 16,7 C 47 % 0 lf 1021,1 hPa 0,0 l/m 0 min 0 min 12 W/m 18,0 km/h (3 Bft) 97,87 %
05.05.2018 20:52 20,6 C 18,9 C 16,7 C 48 % 0 lf 1021,2 hPa 0,0 l/m 0 min 0 min 12 W/m 15,8 km/h (3 Bft) 97,87 %
05.05.2018 20:54 20,5 C 18,9 C 16,7 C 48 % 0 lf 1021,2 hPa 0,0 l/m 0 min 0 min 11 W/m 11,3 km/h (2 Bft) 97,87 %
05.05.2018 20:56 20,4 C 18,3 C 16,1 C 48 % 0 lf 1021,1 hPa 0,0 l/m 0 min 0 min 11 W/m 15,8 km/h (3 Bft) 97,87 %
05.05.2018 20:58 20,3 C 18,9 C 16,7 C 48 % 0 lf 1021,2 hPa 0,0 l/m 0 min 0 min 9 W/m 15,8 km/h (3 Bft) 97,87 %
05.05.2018 21:00 20,3 C 18,3 C 16,1 C 49 % 0 lf 1021,2 hPa 0,0 l/m 0 min 0 min 9 W/m 18,0 km/h (3 Bft) 95,65 %
05.05.2018 21:02 20,2 C 18,3 C 16,1 C 49 % 0 lf 1021,2 hPa 0,0 l/m 0 min 0 min 7 W/m 18,0 km/h (3 Bft) 97,87 %
05.05.2018 21:04 20,1 C 18,3 C 16,1 C 49 % 0 lf 1021,2 hPa 0,0 l/m 0 min 0 min 7 W/m 15,8 km/h (3 Bft) 95,74 %
05.05.2018 21:06 20,1 C 18,3 C 16,1 C 49 % 0 lf 1021,2 hPa 0,0 l/m 0 min 0 min 6 W/m 13,5 km/h (3 Bft) 97,87 %
05.05.2018 21:08 20,0 C 18,3 C 16,1 C 49 % 0 lf 1021,2 hPa 0,0 l/m 0 min 0 min 5 W/m 18,0 km/h (3 Bft) 97,87 %
05.05.2018 21:10 19,9 C 18,3 C 16,1 C 49 % 0 lf 1021,3 hPa 0,0 l/m 0 min 0 min 5 W/m 15,8 km/h (3 Bft) 97,87 %
05.05.2018 21:12 19,8 C 18,3 C 16,1 C 49 % 0 lf 1021,3 hPa 0,0 l/m 0 min 0 min 3 W/m 15,8 km/h (3 Bft) 95,65 %
05.05.2018 21:14 19,8 C 18,3 C 16,1 C 49 % 0 lf 1021,4 hPa 0,0 l/m 0 min 0 min 0 W/m 15,8 km/h (3 Bft) 95,74 %
05.05.2018 21:16 19,7 C 18,3 C 16,1 C 49 % 0 lf 1021,3 hPa 0,0 l/m 0 min 0 min 0 W/m 15,8 km/h (3 Bft) 95,74 %
05.05.2018 21:18 19,6 C 17,8 C 15,6 C 50 % 0 lf 1021,4 hPa 0,0 l/m 0 min 0 min 0 W/m 11,3 km/h (2 Bft) 95,74 %
05.05.2018 21:20 19,6 C 17,8 C 15,6 C 50 % 0 lf 1021,4 hPa 0,0 l/m 0 min 0 min 0 W/m 18,0 km/h (3 Bft) 95,74 %
05.05.2018 21:22 19,5 C 17,8 C 15,6 C 50 % 0 lf 1021,4 hPa 0,0 l/m 0 min 0 min 0 W/m 18,0 km/h (3 Bft) 97,96 %
05.05.2018 21:24 19,4 C 17,8 C 15,0 C 50 % 0 lf 1021,4 hPa 0,0 l/m 0 min 0 min 0 W/m 18,0 km/h (3 Bft) 95,65 %
05.05.2018 21:26 19,4 C 17,8 C 15,6 C 50 % 0 lf 1021,4 hPa 0,0 l/m 0 min 0 min 0 W/m 15,8 km/h (3 Bft) 95,74 %
05.05.2018 21:28 19,3 C 17,8 C 15,6 C 50 % 0 lf 1021,4 hPa 0,0 l/m 0 min 0 min 0 W/m 18,0 km/h (3 Bft) 97,87 %
05.05.2018 21:30 19,2 C 17,8 C 15,6 C 50 % 0 lf 1021,5 hPa 0,0 l/m 0 min 0 min 0 W/m 18,0 km/h (3 Bft) 97,87 %
05.05.2018 21:32 19,2 C 17,8 C 15,0 C 50 % 0 lf 1021,5 hPa 0,0 l/m 0 min 0 min 0 W/m 11,3 km/h (2 Bft) 95,74 %
05.05.2018 21:34 19,1 C 17,2 C 15,0 C 51 % 0 lf 1021,5 hPa 0,0 l/m 0 min 0 min 0 W/m 11,3 km/h (2 Bft) 93,62 %
05.05.2018 21:36 19,1 C 17,2 C 15,0 C 51 % 0 lf 1021,4 hPa 0,0 l/m 0 min 0 min 0 W/m 18,0 km/h (3 Bft) 95,65 %
05.05.2018 21:38 18,9 C 17,2 C 14,4 C 51 % 0 lf 1021,5 hPa 0,0 l/m 0 min 0 min 0 W/m 9,0 km/h (2 Bft) 95,74 %
05.05.2018 21:40 18,9 C 17,2 C 14,4 C 51 % 0 lf 1021,5 hPa 0,0 l/m 0 min 0 min 0 W/m 15,8 km/h (3 Bft) 95,74 %
05.05.2018 21:42 18,9 C 17,2 C 14,4 C 51 % 0 lf 1021,5 hPa 0,0 l/m 0 min 0 min 0 W/m 13,5 km/h (3 Bft) 95,74 %
05.05.2018 21:44 18,8 C 17,2 C 15,0 C 52 % 0 lf 1021,4 hPa 0,0 l/m 0 min 0 min 0 W/m 13,5 km/h (3 Bft) 95,74 %
05.05.2018 21:46 18,7 C 17,2 C 14,4 C 52 % 0 lf 1021,4 hPa 0,0 l/m 0 min 0 min 0 W/m 20,3 km/h (4 Bft) 95,74 %
05.05.2018 21:48 18,7 C 17,2 C 14,4 C 52 % 0 lf 1021,5 hPa 0,0 l/m 0 min 0 min 0 W/m 13,5 km/h (3 Bft) 95,65 %
05.05.2018 21:50 18,6 C 16,7 C 14,4 C 52 % 0 lf 1021,5 hPa 0,0 l/m 0 min 0 min 0 W/m 11,3 km/h (2 Bft) 95,74 %
05.05.2018 21:52 18,6 C 16,7 C 14,4 C 52 % 0 lf 1021,5 hPa 0,0 l/m 0 min 0 min 0 W/m 9,0 km/h (2 Bft) 95,74 %
05.05.2018 21:54 18,5 C 17,2 C 14,4 C 52 % 0 lf 1021,4 hPa 0,0 l/m 0 min 0 min 0 W/m 20,3 km/h (4 Bft) 95,74 %
05.05.2018 21:56 18,4 C 16,7 C 14,4 C 52 % 0 lf 1021,5 hPa 0,0 l/m 0 min 0 min 0 W/m 18,0 km/h (3 Bft) 95,74 %
05.05.2018 21:58 18,4 C 16,7 C 13,9 C 52 % 0 lf 1021,5 hPa 0,0 l/m 0 min 0 min 0 W/m 13,5 km/h (3 Bft) 95,74 %
05.05.2018 22:00 18,3 C 16,7 C 13,9 C 53 % 0 lf 1021,5 hPa 0,0 l/m 0 min 0 min 0 W/m 13,5 km/h (3 Bft) 95,65 %
05.05.2018 22:02 18,3 C 16,7 C 13,9 C 53 % 0 lf 1021,5 hPa 0,0 l/m 0 min 0 min 0 W/m 9,0 km/h (2 Bft) 97,87 %
05.05.2018 22:04 18,3 C 16,7 C 13,9 C 53 % 0 lf 1021,6 hPa 0,0 l/m 0 min 0 min 0 W/m 15,8 km/h (3 Bft) 97,87 %
05.05.2018 22:06 18,2 C 16,7 C 13,9 C 53 % 0 lf 1021,5 hPa 0,0 l/m 0 min 0 min 0 W/m 15,8 km/h (3 Bft) 100,00 %
05.05.2018 22:08 18,2 C 17,2 C 13,9 C 53 % 0 lf 1021,6 hPa 0,0 l/m 0 min 0 min 0 W/m 15,8 km/h (3 Bft) 97,87 %
05.05.2018 22:10 18,1 C 16,7 C 13,9 C 53 % 0 lf 1021,6 hPa 0,0 l/m 0 min 0 min 0 W/m 20,3 km/h (4 Bft) 95,74 %
05.05.2018 22:12 18,1 C 16,7 C 14,4 C 53 % 0 lf 1021,7 hPa 0,0 l/m 0 min 0 min 0 W/m 13,5 km/h (3 Bft) 97,83 %
05.05.2018 22:14 18,0 C 16,7 C 14,4 C 53 % 0 lf 1021,6 hPa 0,0 l/m 0 min 0 min 0 W/m 15,8 km/h (3 Bft) 95,74 %
05.05.2018 22:16 18,0 C 16,7 C 14,4 C 53 % 0 lf 1021,6 hPa 0,0 l/m 0 min 0 min 0 W/m 13,5 km/h (3 Bft) 97,87 %
05.05.2018 22:18 17,9 C 16,7 C 14,4 C 54 % 0 lf 1021,6 hPa 0,0 l/m 0 min 0 min 0 W/m 15,8 km/h (3 Bft) 97,87 %
05.05.2018 22:20 17,9 C 16,7 C 13,9 C 54 % 0 lf 1021,6 hPa 0,0 l/m 0 min 0 min 0 W/m 18,0 km/h (3 Bft) 97,87 %
05.05.2018 22:22 17,9 C 16,7 C 13,9 C 54 % 0 lf 1021,6 hPa 0,0 l/m 0 min 0 min 0 W/m 11,3 km/h (2 Bft) 97,83 %
05.05.2018 22:24 17,8 C 16,7 C 13,9 C 54 % 0 lf 1021,7 hPa 0,0 l/m 0 min 0 min 0 W/m 11,3 km/h (2 Bft) 97,87 %
05.05.2018 22:26 17,8 C 16,7 C 13,3 C 54 % 0 lf 1021,7 hPa 0,0 l/m 0 min 0 min 0 W/m 11,3 km/h (2 Bft) 95,74 %
05.05.2018 22:28 17,8 C 16,1 C 13,3 C 54 % 0 lf 1021,7 hPa 0,0 l/m 0 min 0 min 0 W/m 9,0 km/h (2 Bft) 95,74 %
05.05.2018 22:30 17,7 C 16,1 C 13,3 C 55 % 0 lf 1021,7 hPa 0,0 l/m 0 min 0 min 0 W/m 13,5 km/h (3 Bft) 97,87 %
05.05.2018 22:32 17,7 C 16,1 C 13,3 C 55 % 0 lf 1021,6 hPa 0,0 l/m 0 min 0 min 0 W/m 9,0 km/h (2 Bft) 97,87 %
05.05.2018 22:34 17,7 C 16,1 C 12,8 C 55 % 0 lf 1021,7 hPa 0,0 l/m 0 min 0 min 0 W/m 9,0 km/h (2 Bft) 97,87 %
05.05.2018 22:36 17,6 C 16,1 C 12,8 C 55 % 0 lf 1021,7 hPa 0,0 l/m 0 min 0 min 0 W/m 11,3 km/h (2 Bft) 97,83 %
05.05.2018 22:38 17,6 C 16,1 C 12,8 C 55 % 0 lf 1021,7 hPa 0,0 l/m 0 min 0 min 0 W/m 13,5 km/h (3 Bft) 97,87 %
05.05.2018 22:40 17,6 C 16,1 C 12,8 C 55 % 0 lf 1021,8 hPa 0,0 l/m 0 min 0 min 0 W/m 15,8 km/h (3 Bft) 97,73 %
05.05.2018 22:42 17,5 C 16,1 C 12,8 C 55 % 0 lf 1021,8 hPa 0,0 l/m 0 min 0 min 0 W/m 9,0 km/h (2 Bft) 97,87 %
05.05.2018 22:44 17,4 C 16,1 C 12,8 C 55 % 0 lf 1021,8 hPa 0,0 l/m 0 min 0 min 0 W/m 11,3 km/h (2 Bft) 95,65 %
05.05.2018 22:46 17,4 C 16,1 C 12,8 C 55 % 0 lf 1021,8 hPa 0,0 l/m 0 min 0 min 0 W/m 6,8 km/h (2 Bft) 97,87 %
05.05.2018 22:48 17,4 C 15,6 C 12,8 C 55 % 0 lf 1021,9 hPa 0,0 l/m 0 min 0 min 0 W/m 11,3 km/h (2 Bft) 97,87 %
05.05.2018 22:50 17,3 C 15,6 C 12,8 C 55 % 0 lf 1021,8 hPa 0,0 l/m 0 min 0 min 0 W/m 9,0 km/h (2 Bft) 97,87 %
05.05.2018 22:52 17,3 C 15,6 C 12,2 C 55 % 0 lf 1021,9 hPa 0,0 l/m 0 min 0 min 0 W/m 13,5 km/h (3 Bft) 97,87 %
05.05.2018 22:54 17,3 C 15,6 C 12,2 C 55 % 0 lf 1021,9 hPa 0,0 l/m 0 min 0 min 0 W/m 9,0 km/h (2 Bft) 97,87 %
05.05.2018 22:56 17,2 C 15,6 C 12,2 C 56 % 0 lf 1021,9 hPa 0,0 l/m 0 min 0 min 0 W/m 9,0 km/h (2 Bft) 97,83 %
05.05.2018 22:58 17,2 C 15,0 C 12,2 C 56 % 0 lf 1021,9 hPa 0,0 l/m 0 min 0 min 0 W/m 11,3 km/h (2 Bft) 97,87 %
05.05.2018 23:00 17,1 C 15,0 C 12,2 C 56 % 0 lf 1021,9 hPa 0,0 l/m 0 min 0 min 0 W/m 15,8 km/h (3 Bft) 95,74 %
05.05.2018 23:02 17,1 C 15,0 C 12,2 C 56 % 0 lf 1022,0 hPa 0,0 l/m 0 min 0 min 0 W/m 11,3 km/h (2 Bft) 97,87 %
05.05.2018 23:04 17,0 C 15,0 C 12,2 C 56 % 0 lf 1022,0 hPa 0,0 l/m 0 min 0 min 0 W/m 9,0 km/h (2 Bft) 97,87 %
05.05.2018 23:06 16,9 C 15,0 C 12,2 C 57 % 0 lf 1022,0 hPa 0,0 l/m 0 min 0 min 0 W/m 15,8 km/h (3 Bft) 98,00 %
05.05.2018 23:08 16,9 C 15,0 C 12,2 C 57 % 0 lf 1021,9 hPa 0,0 l/m 0 min 0 min 0 W/m 6,8 km/h (2 Bft) 97,87 %
05.05.2018 23:10 16,8 C 15,0 C 12,2 C 57 % 0 lf 1022,0 hPa 0,0 l/m 0 min 0 min 0 W/m 11,3 km/h (2 Bft) 97,83 %
05.05.2018 23:12 16,8 C 15,0 C 12,2 C 57 % 0 lf 1022,1 hPa 0,0 l/m 0 min 0 min 0 W/m 11,3 km/h (2 Bft) 100,00 %
05.05.2018 23:14 16,7 C 15,0 C 12,2 C 57 % 0 lf 1022,0 hPa 0,0 l/m 0 min 0 min 0 W/m 11,3 km/h (2 Bft) 97,87 %
05.05.2018 23:16 16,7 C 15,0 C 12,2 C 57 % 0 lf 1022,1 hPa 0,0 l/m 0 min 0 min 0 W/m 15,8 km/h (3 Bft) 100,00 %
05.05.2018 23:18 16,6 C 15,0 C 12,2 C 58 % 0 lf 1022,0 hPa 0,0 l/m 0 min 0 min 0 W/m 13,5 km/h (3 Bft) 95,74 %
05.05.2018 23:20 16,5 C 15,0 C 12,2 C 58 % 0 lf 1022,0 hPa 0,0 l/m 0 min 0 min 0 W/m 9,0 km/h (2 Bft) 97,87 %
05.05.2018 23:22 16,4 C 15,0 C 12,8 C 58 % 0 lf 1022,1 hPa 0,0 l/m 0 min 0 min 0 W/m 11,3 km/h (2 Bft) 100,00 %
05.05.2018 23:24 16,4 C 15,0 C 12,2 C 58 % 0 lf 1022,1 hPa 0,0 l/m 0 min 0 min 0 W/m 11,3 km/h (2 Bft) 97,87 %
05.05.2018 23:26 16,4 C 15,0 C 12,2 C 58 % 0 lf 1022,1 hPa 0,0 l/m 0 min 0 min 0 W/m 9,0 km/h (2 Bft) 97,87 %
05.05.2018 23:28 16,3 C 15,0 C 12,2 C 58 % 0 lf 1022,1 hPa 0,0 l/m 0 min 0 min 0 W/m 13,5 km/h (3 Bft) 97,87 %
05.05.2018 23:30 16,2 C 15,6 C 12,8 C 58 % 0 lf 1022,1 hPa 0,0 l/m 0 min 0 min 0 W/m 18,0 km/h (3 Bft) 97,87 %
05.05.2018 23:32 16,2 C 15,0 C 12,2 C 58 % 0 lf 1022,1 hPa 0,0 l/m 0 min 0 min 0 W/m 13,5 km/h (3 Bft) 95,74 %
05.05.2018 23:34 16,2 C 15,0 C 12,2 C 58 % 0 lf 1022,1 hPa 0,0 l/m 0 min 0 min 0 W/m 11,3 km/h (2 Bft) 97,83 %
05.05.2018 23:36 16,2 C 15,0 C 12,2 C 58 % 0 lf 1022,2 hPa 0,0 l/m 0 min 0 min 0 W/m 11,3 km/h (2 Bft) 95,74 %
05.05.2018 23:38 16,1 C 15,0 C 12,2 C 59 % 0 lf 1022,1 hPa 0,0 l/m 0 min 0 min 0 W/m 11,3 km/h (2 Bft) 95,74 %
05.05.2018 23:40 16,1 C 15,0 C 12,2 C 59 % 0 lf 1022,2 hPa 0,0 l/m 0 min 0 min 0 W/m 11,3 km/h (2 Bft) 95,74 %
05.05.2018 23:42 16,1 C 15,0 C 11,7 C 59 % 0 lf 1022,1 hPa 0,0 l/m 0 min 0 min 0 W/m 9,0 km/h (2 Bft) 95,74 %
05.05.2018 23:44 16,0 C 15,0 C 12,2 C 59 % 0 lf 1022,2 hPa 0,0 l/m 0 min 0 min 0 W/m 13,5 km/h (3 Bft) 95,74 %
05.05.2018 23:46 15,9 C 15,0 C 12,2 C 59 % 0 lf 1022,2 hPa 0,0 l/m 0 min 0 min 0 W/m 11,3 km/h (2 Bft) 95,74 %
05.05.2018 23:48 15,9 C 15,0 C 12,2 C 59 % 0 lf 1022,2 hPa 0,0 l/m 0 min 0 min 0 W/m 9,0 km/h (2 Bft) 93,62 %
05.05.2018 23:50 15,9 C 14,4 C 12,2 C 59 % 0 lf 1022,2 hPa 0,0 l/m 0 min 0 min 0 W/m 9,0 km/h (2 Bft) 95,74 %
05.05.2018 23:52 15,8 C 14,4 C 12,2 C 59 % 0 lf 1022,2 hPa 0,0 l/m 0 min 0 min 0 W/m 13,5 km/h (3 Bft) 95,74 %
05.05.2018 23:54 15,8 C 14,4 C 11,7 C 59 % 0 lf 1022,2 hPa 0,0 l/m 0 min 0 min 0 W/m 6,8 km/h (2 Bft) 91,49 %
05.05.2018 23:56 15,8 C 14,4 C 11,7 C 59 % 0 lf 1022,2 hPa 0,0 l/m 0 min 0 min 0 W/m 15,8 km/h (3 Bft) 93,62 %
05.05.2018 23:58 15,7 C 14,4 C 11,7 C 59 % 0 lf 1022,2 hPa 0,0 l/m 0 min 0 min 0 W/m 6,8 km/h (2 Bft) 93,62 %
06.05.2018 00:00 15,7 C 13,9 C 11,7 C 60 % 0 lf 1022,2 hPa 0,0 l/m 0 min 0 min 0 W/m 13,5 km/h (3 Bft) 93,62 %
06.05.2018 00:02 15,7 C 13,9 C 11,7 C 60 % 0 lf 1022,2 hPa 0,0 l/m 0 min 0 min 0 W/m 15,8 km/h (3 Bft) 93,48 %
06.05.2018 00:04 15,6 C 13,9 C 11,7 C 60 % 0 lf 1022,2 hPa 0,0 l/m 0 min 0 min 0 W/m 9,0 km/h (2 Bft) 94,44 %
06.05.2018 00:07 15,6 C 13,9 C 11,1 C 60 % 0 lf 1022,2 hPa 0,0 l/m 0 min 0 min 0 W/m 9,0 km/h (2 Bft) 94,52 %
06.05.2018 00:08 15,6 C 13,9 C 11,1 C 60 % 0 lf 1022,2 hPa 0,0 l/m 0 min 0 min 0 W/m 6,8 km/h (2 Bft) 87,50 %
06.05.2018 00:10 15,5 C 13,9 C 11,1 C 60 % 0 lf 1022,2 hPa 0,0 l/m 0 min 0 min 0 W/m 11,3 km/h (2 Bft) 93,48 %
06.05.2018 00:12 15,4 C 13,9 C 11,1 C 60 % 0 lf 1022,2 hPa 0,0 l/m 0 min 0 min 0 W/m 6,8 km/h (2 Bft) 95,74 %
06.05.2018 00:14 15,4 C 13,9 C 11,1 C 60 % 0 lf 1022,2 hPa 0,0 l/m 0 min 0 min 0 W/m 13,5 km/h (3 Bft) 93,62 %
06.05.2018 00:16 15,4 C 13,9 C 11,1 C 61 % 0 lf 1022,2 hPa 0,0 l/m 0 min 0 min 0 W/m 11,3 km/h (2 Bft) 93,62 %
06.05.2018 00:18 15,3 C 13,3 C 11,1 C 61 % 0 lf 1022,2 hPa 0,0 l/m 0 min 0 min 0 W/m 6,8 km/h (2 Bft) 95,74 %
06.05.2018 00:20 15,3 C 13,9 C 11,1 C 61 % 0 lf 1022,2 hPa 0,0 l/m 0 min 0 min 0 W/m 18,0 km/h (3 Bft) 95,74 %
06.05.2018 00:22 15,2 C 13,3 C 11,1 C 61 % 0 lf 1022,2 hPa 0,0 l/m 0 min 0 min 0 W/m 11,3 km/h (2 Bft) 93,48 %
06.05.2018 00:24 15,2 C 13,3 C 11,1 C 61 % 0 lf 1022,2 hPa 0,0 l/m 0 min 0 min 0 W/m 13,5 km/h (3 Bft) 95,74 %
06.05.2018 00:26 15,1 C 13,3 C 11,1 C 61 % 0 lf 1022,2 hPa 0,0 l/m 0 min 0 min 0 W/m 9,0 km/h (2 Bft) 97,87 %
06.05.2018 00:28 15,1 C 13,3 C 11,1 C 61 % 0 lf 1022,2 hPa 0,0 l/m 0 min 0 min 0 W/m 11,3 km/h (2 Bft) 95,74 %
06.05.2018 00:30 15,0 C 13,3 C 10,6 C 61 % 0 lf 1022,2 hPa 0,0 l/m 0 min 0 min 0 W/m 6,8 km/h (2 Bft) 97,87 %
06.05.2018 00:32 14,9 C 13,3 C 10,6 C 61 % 0 lf 1022,2 hPa 0,0 l/m 0 min 0 min 0 W/m 11,3 km/h (2 Bft) 97,83 %
06.05.2018 00:34 14,9 C 13,3 C 11,1 C 62 % 0 lf 1022,2 hPa 0,0 l/m 0 min 0 min 0 W/m 13,5 km/h (3 Bft) 97,87 %
06.05.2018 00:36 14,8 C 13,3 C 10,6 C 62 % 0 lf 1022,2 hPa 0,0 l/m 0 min 0 min 0 W/m 11,3 km/h (2 Bft) 97,87 %
06.05.2018 00:38 14,8 C 13,3 C 10,6 C 62 % 0 lf 1022,2 hPa 0,0 l/m 0 min 0 min 0 W/m 11,3 km/h (2 Bft) 97,87 %
06.05.2018 00:40 14,7 C 13,3 C 10,6 C 62 % 0 lf 1022,2 hPa 0,0 l/m 0 min 0 min 0 W/m 15,8 km/h (3 Bft) 97,87 %
06.05.2018 00:42 14,7 C 12,8 C 10,6 C 62 % 0 lf 1022,2 hPa 0,0 l/m 0 min 0 min 0 W/m 6,8 km/h (2 Bft) 100,00 %
06.05.2018 00:44 14,6 C 12,8 C 10,6 C 62 % 0 lf 1022,3 hPa 0,0 l/m 0 min 0 min 0 W/m 9,0 km/h (2 Bft) 97,67 %
06.05.2018 00:46 14,6 C 12,8 C 10,6 C 62 % 0 lf 1022,2 hPa 0,0 l/m 0 min 0 min 0 W/m 11,3 km/h (2 Bft) 100,00 %
06.05.2018 00:48 14,6 C 12,8 C 10,6 C 62 % 0 lf 1022,3 hPa 0,0 l/m 0 min 0 min 0 W/m 9,0 km/h (2 Bft) 100,00 %
06.05.2018 00:50 14,5 C 12,8 C 10,6 C 62 % 0 lf 1022,4 hPa 0,0 l/m 0 min 0 min 0 W/m 9,0 km/h (2 Bft) 98,28 %
06.05.2018 00:52 14,4 C 12,8 C 10,6 C 62 % 0 lf 1022,3 hPa 0,0 l/m 0 min 0 min 0 W/m 11,3 km/h (2 Bft) 100,00 %
06.05.2018 00:54 14,4 C 12,8 C 10,6 C 62 % 0 lf 1022,3 hPa 0,0 l/m 0 min 0 min 0 W/m 6,8 km/h (2 Bft) 97,14 %
06.05.2018 00:56 14,3 C 13,3 C 10,0 C 62 % 0 lf 1022,3 hPa 0,0 l/m 0 min 0 min 0 W/m 9,0 km/h (2 Bft) 100,00 %
06.05.2018 00:58 14,3 C 13,3 C 10,0 C 63 % 0 lf 1022,3 hPa 0,0 l/m 0 min 0 min 0 W/m 9,0 km/h (2 Bft) 100,00 %
06.05.2018 01:00 14,2 C 13,3 C 10,0 C 63 % 0 lf 1022,3 hPa 0,0 l/m 0 min 0 min 0 W/m 9,0 km/h (2 Bft) 100,00 %
06.05.2018 01:02 14,2 C 12,8 C 10,0 C 63 % 0 lf 1022,3 hPa 0,0 l/m 0 min 0 min 0 W/m 4,5 km/h (1 Bft) 100,00 %
06.05.2018 01:04 14,2 C 12,8 C 10,0 C 63 % 0 lf 1022,3 hPa 0,0 l/m 0 min 0 min 0 W/m 4,5 km/h (1 Bft) 100,00 %
06.05.2018 01:06 14,2 C 12,8 C 9,4 C 63 % 0 lf 1022,4 hPa 0,0 l/m 0 min 0 min 0 W/m 9,0 km/h (2 Bft) 100,00 %
06.05.2018 01:08 14,2 C 12,8 C 9,4 C 63 % 0 lf 1022,3 hPa 0,0 l/m 0 min 0 min 0 W/m 6,8 km/h (2 Bft) 100,00 %
06.05.2018 01:10 14,2 C 12,8 C 9,4 C 63 % 0 lf 1022,4 hPa 0,0 l/m 0 min 0 min 0 W/m 6,8 km/h (2 Bft) 100,00 %
06.05.2018 01:12 14,2 C 12,8 C 9,4 C 63 % 0 lf 1022,3 hPa 0,0 l/m 0 min 0 min 0 W/m 6,8 km/h (2 Bft) 97,87 %
06.05.2018 01:14 14,1 C 12,8 C 9,4 C 63 % 0 lf 1022,4 hPa 0,0 l/m 0 min 0 min 0 W/m 9,0 km/h (2 Bft) 100,00 %
06.05.2018 01:16 14,1 C 12,8 C 9,4 C 63 % 0 lf 1022,4 hPa 0,0 l/m 0 min 0 min 0 W/m 6,8 km/h (2 Bft) 97,87 %
06.05.2018 01:18 14,0 C 12,8 C 9,4 C 63 % 0 lf 1022,4 hPa 0,0 l/m 0 min 0 min 0 W/m 9,0 km/h (2 Bft) 100,00 %
06.05.2018 01:20 13,9 C 12,8 C 9,4 C 63 % 0 lf 1022,3 hPa 0,0 l/m 0 min 0 min 0 W/m 9,0 km/h (2 Bft) 100,00 %
06.05.2018 01:22 13,9 C 12,8 C 8,9 C 63 % 0 lf 1022,3 hPa 0,0 l/m 0 min 0 min 0 W/m 6,8 km/h (2 Bft) 100,00 %
06.05.2018 01:24 13,9 C 12,2 C 8,9 C 64 % 0 lf 1022,3 hPa 0,0 l/m 0 min 0 min 0 W/m 6,8 km/h (2 Bft) 100,00 %
06.05.2018 01:26 13,8 C 12,2 C 8,9 C 64 % 0 lf 1022,2 hPa 0,0 l/m 0 min 0 min 0 W/m 9,0 km/h (2 Bft) 100,00 %
06.05.2018 01:28 13,8 C 12,2 C 8,9 C 64 % 0 lf 1022,3 hPa 0,0 l/m 0 min 0 min 0 W/m 9,0 km/h (2 Bft) 97,87 %
06.05.2018 01:30 13,7 C 12,2 C 8,9 C 64 % 0 lf 1022,3 hPa 0,0 l/m 0 min 0 min 0 W/m 9,0 km/h (2 Bft) 100,00 %
06.05.2018 01:32 13,7 C 12,2 C 8,9 C 64 % 0 lf 1022,3 hPa 0,0 l/m 0 min 0 min 0 W/m 9,0 km/h (2 Bft) 100,00 %
06.05.2018 01:34 13,6 C 12,2 C 9,4 C 64 % 0 lf 1022,3 hPa 0,0 l/m 0 min 0 min 0 W/m 6,8 km/h (2 Bft) 100,00 %
06.05.2018 01:36 13,6 C 12,2 C 9,4 C 64 % 0 lf 1022,2 hPa 0,0 l/m 0 min 0 min 0 W/m 9,0 km/h (2 Bft) 97,87 %
06.05.2018 01:38 13,5 C 12,2 C 9,4 C 64 % 0 lf 1022,2 hPa 0,0 l/m 0 min 0 min 0 W/m 9,0 km/h (2 Bft) 95,74 %
06.05.2018 01:40 13,4 C 12,2 C 8,9 C 64 % 0 lf 1022,2 hPa 0,0 l/m 0 min 0 min 0 W/m 6,8 km/h (2 Bft) 97,83 %
06.05.2018 01:42 13,4 C 12,2 C 8,9 C 64 % 0 lf 1022,2 hPa 0,0 l/m 0 min 0 min 0 W/m 11,3 km/h (2 Bft) 95,74 %
06.05.2018 01:44 13,4 C 12,2 C 8,9 C 64 % 0 lf 1022,2 hPa 0,0 l/m 0 min 0 min 0 W/m 6,8 km/h (2 Bft) 93,62 %
06.05.2018 01:46 13,3 C 12,2 C 8,9 C 65 % 0 lf 1022,2 hPa 0,0 l/m 0 min 0 min 0 W/m 6,8 km/h (2 Bft) 93,62 %
06.05.2018 01:48 13,3 C 12,2 C 8,9 C 65 % 0 lf 1022,2 hPa 0,0 l/m 0 min 0 min 0 W/m 4,5 km/h (1 Bft) 95,74 %
06.05.2018 01:50 13,3 C 12,2 C 8,9 C 65 % 0 lf 1022,2 hPa 0,0 l/m 0 min 0 min 0 W/m 6,8 km/h (2 Bft) 96,55 %
06.05.2018 01:52 13,3 C 12,2 C 8,9 C 65 % 0 lf 1022,2 hPa 0,0 l/m 0 min 0 min 0 W/m 6,8 km/h (2 Bft) 93,62 %
06.05.2018 01:54 13,2 C 11,7 C 8,9 C 65 % 0 lf 1022,1 hPa 0,0 l/m 0 min 0 min 0 W/m 11,3 km/h (2 Bft) 97,14 %
06.05.2018 01:56 13,2 C 11,7 C 8,9 C 65 % 0 lf 1022,2 hPa 0,0 l/m 0 min 0 min 0 W/m 6,8 km/h (2 Bft) 95,74 %
06.05.2018 01:58 13,2 C 11,7 C 8,9 C 65 % 0 lf 1022,2 hPa 0,0 l/m 0 min 0 min 0 W/m 6,8 km/h (2 Bft) 93,62 %
06.05.2018 02:00 13,1 C 11,7 C 8,9 C 65 % 0 lf 1022,1 hPa 0,0 l/m 0 min 0 min 0 W/m 4,5 km/h (1 Bft) 95,74 %
06.05.2018 02:02 13,1 C 11,7 C 8,3 C 65 % 0 lf 1022,2 hPa 0,0 l/m 0 min 0 min 0 W/m 6,8 km/h (2 Bft) 95,74 %
06.05.2018 02:04 13,1 C 11,1 C 8,3 C 66 % 0 lf 1022,2 hPa 0,0 l/m 0 min 0 min 0 W/m 4,5 km/h (1 Bft) 95,65 %
06.05.2018 02:06 13,0 C 11,7 C 8,3 C 66 % 0 lf 1022,2 hPa 0,0 l/m 0 min 0 min 0 W/m 11,3 km/h (2 Bft) 95,74 %
06.05.2018 02:08 12,9 C 11,1 C 8,3 C 66 % 0 lf 1022,2 hPa 0,0 l/m 0 min 0 min 0 W/m 6,8 km/h (2 Bft) 95,74 %
06.05.2018 02:10 12,9 C 11,1 C 8,3 C 66 % 0 lf 1022,2 hPa 0,0 l/m 0 min 0 min 0 W/m 6,8 km/h (2 Bft) 95,74 %
06.05.2018 02:12 12,9 C 11,1 C 8,3 C 66 % 0 lf 1022,2 hPa 0,0 l/m 0 min 0 min 0 W/m 6,8 km/h (2 Bft) 95,74 %
06.05.2018 02:14 12,8 C 11,1 C 8,3 C 66 % 0 lf 1022,2 hPa 0,0 l/m 0 min 0 min 0 W/m 6,8 km/h (2 Bft) 95,74 %
06.05.2018 02:16 12,8 C 11,1 C 8,3 C 66 % 0 lf 1022,2 hPa 0,0 l/m 0 min 0 min 0 W/m 6,8 km/h (2 Bft) 95,65 %
06.05.2018 02:18 12,7 C 10,6 C 8,3 C 67 % 0 lf 1022,2 hPa 0,0 l/m 0 min 0 min 0 W/m 4,5 km/h (1 Bft) 97,87 %
06.05.2018 02:20 12,7 C 10,6 C 8,3 C 67 % 0 lf 1022,1 hPa 0,0 l/m 0 min 0 min 0 W/m 6,8 km/h (2 Bft) 96,61 %
06.05.2018 02:22 12,7 C 10,6 C 8,3 C 67 % 0 lf 1022,1 hPa 0,0 l/m 0 min 0 min 0 W/m 4,5 km/h (1 Bft) 93,62 %
06.05.2018 02:24 12,6 C 10,6 C 8,3 C 67 % 0 lf 1022,1 hPa 0,0 l/m 0 min 0 min 0 W/m 4,5 km/h (1 Bft) 97,14 %
06.05.2018 02:26 12,6 C 10,6 C 7,8 C 67 % 0 lf 1022,1 hPa 0,0 l/m 0 min 0 min 0 W/m 4,5 km/h (1 Bft) 97,87 %
06.05.2018 02:28 12,6 C 10,6 C 7,8 C 67 % 0 lf 1022,1 hPa 0,0 l/m 0 min 0 min 0 W/m 4,5 km/h (1 Bft) 97,83 %
06.05.2018 02:30 12,5 C 10,6 C 7,8 C 67 % 0 lf 1022,2 hPa 0,0 l/m 0 min 0 min 0 W/m 4,5 km/h (1 Bft) 97,87 %
06.05.2018 02:32 12,4 C 10,0 C 7,8 C 67 % 0 lf 1022,1 hPa 0,0 l/m 0 min 0 min 0 W/m 4,5 km/h (1 Bft) 95,74 %
06.05.2018 02:34 12,4 C 10,0 C 7,8 C 67 % 0 lf 1022,2 hPa 0,0 l/m 0 min 0 min 0 W/m 4,5 km/h (1 Bft) 93,62 %
06.05.2018 02:36 12,4 C 10,0 C 7,8 C 67 % 0 lf 1022,2 hPa 0,0 l/m 0 min 0 min 0 W/m 6,8 km/h (2 Bft) 95,74 %
06.05.2018 02:38 12,3 C 10,0 C 7,8 C 67 % 0 lf 1022,2 hPa 0,0 l/m 0 min 0 min 0 W/m 4,5 km/h (1 Bft) 97,87 %
06.05.2018 02:40 12,3 C 10,0 C 7,8 C 68 % 0 lf 1022,2 hPa 0,0 l/m 0 min 0 min 0 W/m 4,5 km/h (1 Bft) 95,65 %
06.05.2018 02:42 12,2 C 10,0 C 7,8 C 68 % 0 lf 1022,2 hPa 0,0 l/m 0 min 0 min 0 W/m 6,8 km/h (2 Bft) 89,36 %
06.05.2018 02:44 12,2 C 10,0 C 7,8 C 68 % 0 lf 1022,2 hPa 0,0 l/m 0 min 0 min 0 W/m 6,8 km/h (2 Bft) 95,74 %
06.05.2018 02:46 12,1 C 10,0 C 7,8 C 68 % 0 lf 1022,2 hPa 0,0 l/m 0 min 0 min 0 W/m 9,0 km/h (2 Bft) 95,74 %
06.05.2018 02:48 12,1 C 10,0 C 7,8 C 68 % 0 lf 1022,1 hPa 0,0 l/m 0 min 0 min 0 W/m 6,8 km/h (2 Bft) 93,62 %
06.05.2018 02:50 12,0 C 10,0 C 7,8 C 68 % 0 lf 1022,0 hPa 0,0 l/m 0 min 0 min 0 W/m 6,8 km/h (2 Bft) 96,55 %
06.05.2018 02:52 12,0 C 10,0 C 7,8 C 68 % 0 lf 1022,0 hPa 0,0 l/m 0 min 0 min 0 W/m 11,3 km/h (2 Bft) 95,74 %
06.05.2018 02:54 11,9 C 10,0 C 7,8 C 68 % 0 lf 1022,0 hPa 0,0 l/m 0 min 0 min 0 W/m 6,8 km/h (2 Bft) 94,29 %
06.05.2018 02:56 11,9 C 10,0 C 7,8 C 69 % 0 lf 1022,0 hPa 0,0 l/m 0 min 0 min 0 W/m 4,5 km/h (1 Bft) 93,62 %
06.05.2018 02:58 11,8 C 10,0 C 7,8 C 69 % 0 lf 1021,9 hPa 0,0 l/m 0 min 0 min 0 W/m 6,8 km/h (2 Bft) 93,62 %
06.05.2018 03:00 11,8 C 10,0 C 7,8 C 69 % 0 lf 1021,9 hPa 0,0 l/m 0 min 0 min 0 W/m 9,0 km/h (2 Bft) 95,74 %
06.05.2018 03:02 11,8 C 10,0 C 7,8 C 69 % 0 lf 1022,0 hPa 0,0 l/m 0 min 0 min 0 W/m 6,8 km/h (2 Bft) 95,65 %
06.05.2018 03:04 11,7 C 10,0 C 7,8 C 69 % 0 lf 1022,0 hPa 0,0 l/m 0 min 0 min 0 W/m 11,3 km/h (2 Bft) 95,74 %
06.05.2018 03:06 11,7 C 10,0 C 7,8 C 69 % 0 lf 1022,1 hPa 0,0 l/m 0 min 0 min 0 W/m 6,8 km/h (2 Bft) 95,74 %
06.05.2018 03:08 11,6 C 10,0 C 7,8 C 70 % 0 lf 1022,0 hPa 0,0 l/m 0 min 0 min 0 W/m 11,3 km/h (2 Bft) 95,74 %
06.05.2018 03:10 11,6 C 10,0 C 7,8 C 70 % 0 lf 1022,0 hPa 0,0 l/m 0 min 0 min 0 W/m 6,8 km/h (2 Bft) 95,74 %
06.05.2018 03:12 11,6 C 10,0 C 7,8 C 70 % 0 lf 1022,0 hPa 0,0 l/m 0 min 0 min 0 W/m 6,8 km/h (2 Bft) 93,62 %
06.05.2018 03:14 11,5 C 10,0 C 7,8 C 70 % 0 lf 1022,1 hPa 0,0 l/m 0 min 0 min 0 W/m 6,8 km/h (2 Bft) 95,65 %
06.05.2018 03:16 11,5 C 10,0 C 7,8 C 70 % 0 lf 1022,0 hPa 0,0 l/m 0 min 0 min 0 W/m 11,3 km/h (2 Bft) 95,74 %
06.05.2018 03:18 11,4 C 10,0 C 7,8 C 70 % 0 lf 1022,1 hPa 0,0 l/m 0 min 0 min 0 W/m 4,5 km/h (1 Bft) 97,87 %
06.05.2018 03:20 11,4 C 10,0 C 7,8 C 70 % 0 lf 1022,2 hPa 0,0 l/m 0 min 0 min 0 W/m 6,8 km/h (2 Bft) 98,31 %
06.05.2018 03:22 11,4 C 10,0 C 7,8 C 70 % 0 lf 1022,1 hPa 0,0 l/m 0 min 0 min 0 W/m 4,5 km/h (1 Bft) 95,74 %
06.05.2018 03:24 11,3 C 9,4 C 7,2 C 70 % 0 lf 1022,1 hPa 0,0 l/m 0 min 0 min 0 W/m 4,5 km/h (1 Bft) 97,14 %
06.05.2018 03:26 11,3 C 9,4 C 7,2 C 70 % 0 lf 1022,0 hPa 0,0 l/m 0 min 0 min 0 W/m 6,8 km/h (2 Bft) 97,83 %
06.05.2018 03:28 11,3 C 10,0 C 7,2 C 70 % 0 lf 1022,1 hPa 0,0 l/m 0 min 0 min 0 W/m 4,5 km/h (1 Bft) 97,87 %
06.05.2018 03:30 11,3 C 10,0 C 7,2 C 70 % 0 lf 1022,0 hPa 0,0 l/m 0 min 0 min 0 W/m 6,8 km/h (2 Bft) 97,87 %
06.05.2018 03:32 11,3 C 10,6 C 7,8 C 71 % 0 lf 1022,1 hPa 0,0 l/m 0 min 0 min 0 W/m 11,3 km/h (2 Bft) 97,87 %
06.05.2018 03:34 11,2 C 10,6 C 7,8 C 71 % 0 lf 1022,1 hPa 0,0 l/m 0 min 0 min 0 W/m 11,3 km/h (2 Bft) 97,87 %
06.05.2018 03:36 11,2 C 10,6 C 7,8 C 71 % 0 lf 1022,1 hPa 0,0 l/m 0 min 0 min 0 W/m 6,8 km/h (2 Bft) 97,87 %
06.05.2018 03:38 11,2 C 10,0 C 7,8 C 71 % 0 lf 1022,1 hPa 0,0 l/m 0 min 0 min 0 W/m 4,5 km/h (1 Bft) 100,00 %
06.05.2018 03:40 11,2 C 10,0 C 7,8 C 71 % 0 lf 1022,0 hPa 0,0 l/m 0 min 0 min 0 W/m 6,8 km/h (2 Bft) 100,00 %
06.05.2018 03:42 11,1 C 10,0 C 7,2 C 71 % 0 lf 1022,0 hPa 0,0 l/m 0 min 0 min 0 W/m 6,8 km/h (2 Bft) 100,00 %
06.05.2018 03:44 11,1 C 9,4 C 7,2 C 71 % 0 lf 1022,1 hPa 0,0 l/m 0 min 0 min 0 W/m 6,8 km/h (2 Bft) 97,87 %
06.05.2018 03:46 11,1 C 9,4 C 7,2 C 71 % 0 lf 1022,1 hPa 0,0 l/m 0 min 0 min 0 W/m 4,5 km/h (1 Bft) 97,87 %
06.05.2018 03:48 11,1 C 9,4 C 7,2 C 71 % 0 lf 1022,1 hPa 0,0 l/m 0 min 0 min 0 W/m 6,8 km/h (2 Bft) 100,00 %
06.05.2018 03:50 11,0 C 9,4 C 7,2 C 72 % 0 lf 1022,1 hPa 0,0 l/m 0 min 0 min 0 W/m 6,8 km/h (2 Bft) 100,00 %
06.05.2018 03:52 11,0 C 9,4 C 7,2 C 72 % 0 lf 1022,1 hPa 0,0 l/m 0 min 0 min 0 W/m 6,8 km/h (2 Bft) 97,87 %
06.05.2018 03:54 11,0 C 9,4 C 7,2 C 72 % 0 lf 1022,1 hPa 0,0 l/m 0 min 0 min 0 W/m 2,3 km/h (1 Bft) 97,14 %
06.05.2018 03:56 10,9 C 9,4 C 7,2 C 72 % 0 lf 1022,1 hPa 0,0 l/m 0 min 0 min 0 W/m 2,3 km/h (1 Bft) 97,87 %
06.05.2018 03:58 10,9 C 9,4 C 7,2 C 72 % 0 lf 1022,2 hPa 0,0 l/m 0 min 0 min 0 W/m 4,5 km/h (1 Bft) 95,74 %
06.05.2018 04:00 10,9 C 8,9 C 7,2 C 72 % 0 lf 1022,2 hPa 0,0 l/m 0 min 0 min 0 W/m 6,8 km/h (2 Bft) 97,87 %
06.05.2018 04:05 10,8 C 8,9 C 7,2 C 72 % 0 lf 1022,2 hPa 0,0 l/m 0 min 0 min 0 W/m 4,5 km/h (1 Bft) 33,33 %
06.05.2018 04:06 10,8 C 8,9 C 7,2 C 72 % 0 lf 1022,2 hPa 0,0 l/m 0 min 0 min 0 W/m 0,0 km/h (0 Bft) 95,83 %
06.05.2018 04:08 10,8 C 8,9 C 7,2 C 72 % 0 lf 1022,2 hPa 0,0 l/m 0 min 0 min 0 W/m 0,0 km/h (0 Bft) 97,14 %
06.05.2018 04:10 10,8 C 8,9 C 7,2 C 72 % 0 lf 1022,2 hPa 0,0 l/m 0 min 0 min 0 W/m 0,0 km/h (0 Bft) 100,00 %
06.05.2018 04:12 10,8 C 8,9 C 6,7 C 72 % 0 lf 1022,2 hPa 0,0 l/m 0 min 0 min 0 W/m 0,0 km/h (0 Bft) 97,83 %
06.05.2018 04:14 10,7 C 8,9 C 6,7 C 72 % 0 lf 1022,2 hPa 0,0 l/m 0 min 0 min 0 W/m 0,0 km/h (0 Bft) 97,87 %
06.05.2018 04:16 10,7 C 8,3 C 6,7 C 72 % 0 lf 1022,2 hPa 0,0 l/m 0 min 0 min 0 W/m 0,0 km/h (0 Bft) 97,87 %
06.05.2018 04:18 10,7 C 8,3 C 6,7 C 72 % 0 lf 1022,2 hPa 0,0 l/m 0 min 0 min 0 W/m 0,0 km/h (0 Bft) 97,87 %
06.05.2018 04:20 10,7 C 8,3 C 6,7 C 72 % 0 lf 1022,2 hPa 0,0 l/m 0 min 0 min 0 W/m 0,0 km/h (0 Bft) 97,87 %
06.05.2018 04:22 10,6 C 8,3 C 6,7 C 72 % 0 lf 1022,2 hPa 0,0 l/m 0 min 0 min 0 W/m 0,0 km/h (0 Bft) 98,28 %
06.05.2018 04:24 10,6 C 8,3 C 6,7 C 72 % 0 lf 1022,2 hPa 0,0 l/m 0 min 0 min 0 W/m 0,0 km/h (0 Bft) 100,00 %
06.05.2018 04:26 10,6 C 8,3 C 6,7 C 72 % 0 lf 1022,2 hPa 0,0 l/m 0 min 0 min 0 W/m 0,0 km/h (0 Bft) 97,87 %
06.05.2018 04:28 10,5 C 8,3 C 6,7 C 72 % 0 lf 1022,2 hPa 0,0 l/m 0 min 0 min 0 W/m 0,0 km/h (0 Bft) 97,87 %
06.05.2018 04:30 10,4 C 8,3 C 6,7 C 72 % 0 lf 1022,2 hPa 0,0 l/m 0 min 0 min 0 W/m 0,0 km/h (0 Bft) 97,87 %
06.05.2018 04:32 10,4 C 8,3 C 6,7 C 73 % 0 lf 1022,2 hPa 0,0 l/m 0 min 0 min 0 W/m 0,0 km/h (0 Bft) 100,00 %
06.05.2018 04:34 10,4 C 8,3 C 6,7 C 73 % 0 lf 1022,2 hPa 0,0 l/m 0 min 0 min 0 W/m 0,0 km/h (0 Bft) 100,00 %
06.05.2018 04:36 10,4 C 8,3 C 6,7 C 73 % 0 lf 1022,1 hPa 0,0 l/m 0 min 0 min 0 W/m 0,0 km/h (0 Bft) 100,00 %
06.05.2018 04:38 10,3 C 8,3 C 6,7 C 73 % 0 lf 1022,2 hPa 0,0 l/m 0 min 0 min 0 W/m 0,0 km/h (0 Bft) 100,00 %
06.05.2018 04:40 10,3 C 8,3 C 6,7 C 73 % 0 lf 1022,1 hPa 0,0 l/m 0 min 0 min 0 W/m 0,0 km/h (0 Bft) 97,87 %
06.05.2018 04:42 10,3 C 8,3 C 6,7 C 74 % 0 lf 1022,0 hPa 0,0 l/m 0 min 0 min 0 W/m 0,0 km/h (0 Bft) 100,00 %
06.05.2018 04:44 10,2 C 8,3 C 6,7 C 74 % 0 lf 1022,1 hPa 0,0 l/m 0 min 0 min 0 W/m 0,0 km/h (0 Bft) 97,87 %
06.05.2018 04:46 10,2 C 8,3 C 6,1 C 74 % 0 lf 1022,1 hPa 0,0 l/m 0 min 0 min 0 W/m 0,0 km/h (0 Bft) 97,87 %
06.05.2018 04:48 10,2 C 8,3 C 6,1 C 74 % 0 lf 1022,1 hPa 0,0 l/m 0 min 0 min 0 W/m 0,0 km/h (0 Bft) 97,83 %
06.05.2018 04:50 10,1 C 8,3 C 6,1 C 74 % 0 lf 1022,1 hPa 0,0 l/m 0 min 0 min 0 W/m 0,0 km/h (0 Bft) 97,87 %
06.05.2018 04:52 10,1 C 8,3 C 6,1 C 74 % 0 lf 1022,1 hPa 0,0 l/m 0 min 0 min 0 W/m 0,0 km/h (0 Bft) 98,31 %
06.05.2018 04:54 10,1 C 8,3 C 6,1 C 74 % 0 lf 1022,1 hPa 0,0 l/m 0 min 0 min 0 W/m 0,0 km/h (0 Bft) 97,14 %
06.05.2018 04:56 10,0 C 8,3 C 6,1 C 74 % 0 lf 1022,1 hPa 0,0 l/m 0 min 0 min 0 W/m 0,0 km/h (0 Bft) 95,74 %
06.05.2018 04:58 9,9 C 7,8 C 6,1 C 74 % 0 lf 1022,1 hPa 0,0 l/m 0 min 0 min 0 W/m 0,0 km/h (0 Bft) 97,87 %
06.05.2018 05:00 9,9 C 7,8 C 6,1 C 75 % 0 lf 1022,1 hPa 0,0 l/m 0 min 0 min 0 W/m 0,0 km/h (0 Bft) 97,83 %
06.05.2018 05:02 9,9 C 7,8 C 6,1 C 75 % 0 lf 1022,1 hPa 0,0 l/m 0 min 0 min 0 W/m 0,0 km/h (0 Bft) 95,74 %
06.05.2018 05:04 9,8 C 7,8 C 6,1 C 75 % 0 lf 1022,1 hPa 0,0 l/m 0 min 0 min 0 W/m 0,0 km/h (0 Bft) 95,74 %
06.05.2018 05:06 9,8 C 7,8 C 6,1 C 75 % 0 lf 1022,1 hPa 0,0 l/m 0 min 0 min 0 W/m 0,0 km/h (0 Bft) 95,74 %
06.05.2018 05:08 9,8 C 7,8 C 6,1 C 75 % 0 lf 1022,1 hPa 0,0 l/m 0 min 0 min 0 W/m 0,0 km/h (0 Bft) 95,74 %
06.05.2018 05:10 9,7 C 7,8 C 6,1 C 75 % 0 lf 1022,1 hPa 0,0 l/m 0 min 0 min 0 W/m 0,0 km/h (0 Bft) 95,74 %
06.05.2018 05:12 9,7 C 7,8 C 6,1 C 75 % 0 lf 1022,1 hPa 0,0 l/m 0 min 0 min 0 W/m 0,0 km/h (0 Bft) 95,65 %
06.05.2018 05:14 9,7 C 7,8 C 6,1 C 75 % 0 lf 1022,1 hPa 0,0 l/m 0 min 0 min 0 W/m 0,0 km/h (0 Bft) 93,62 %
06.05.2018 05:16 9,6 C 7,8 C 6,1 C 75 % 0 lf 1022,1 hPa 0,0 l/m 0 min 0 min 0 W/m 0,0 km/h (0 Bft) 95,74 %
06.05.2018 05:18 9,6 C 7,8 C 6,1 C 75 % 0 lf 1022,1 hPa 0,0 l/m 0 min 0 min 0 W/m 0,0 km/h (0 Bft) 93,62 %
06.05.2018 05:20 9,6 C 7,8 C 6,1 C 76 % 0 lf 1022,1 hPa 0,0 l/m 0 min 0 min 0 W/m 4,5 km/h (1 Bft) 95,74 %
06.05.2018 05:22 9,6 C 7,8 C 6,1 C 76 % 0 lf 1022,2 hPa 0,0 l/m 0 min 0 min 0 W/m 4,5 km/h (1 Bft) 96,55 %
06.05.2018 05:24 9,5 C 7,8 C 6,1 C 76 % 0 lf 1022,1 hPa 0,0 l/m 0 min 0 min 0 W/m 6,8 km/h (2 Bft) 94,29 %
06.05.2018 05:26 9,4 C 7,8 C 6,1 C 76 % 0 lf 1022,1 hPa 0,0 l/m 0 min 0 min 0 W/m 4,5 km/h (1 Bft) 95,74 %
06.05.2018 05:28 9,4 C 7,2 C 6,1 C 76 % 0 lf 1022,1 hPa 0,0 l/m 0 min 0 min 0 W/m 4,5 km/h (1 Bft) 95,74 %
06.05.2018 05:30 9,4 C 7,2 C 6,1 C 76 % 0 lf 1022,1 hPa 0,0 l/m 0 min 0 min 0 W/m 2,3 km/h (1 Bft) 95,74 %
06.05.2018 05:32 9,3 C 7,8 C 5,6 C 76 % 0 lf 1022,1 hPa 0,0 l/m 0 min 0 min 0 W/m 0,0 km/h (0 Bft) 95,74 %
06.05.2018 05:34 9,3 C 7,2 C 5,6 C 76 % 0 lf 1022,1 hPa 0,0 l/m 0 min 0 min 0 W/m 0,0 km/h (0 Bft) 95,65 %
06.05.2018 05:35 9,3 C 7,2 C 5,6 C 76 % 0 lf 1022,1 hPa 0,0 l/m 0 min 0 min 0 W/m 0,0 km/h (0 Bft) 96,49 %
06.05.2018 05:40 9,2 C 7,2 C 5,6 C 77 % 0 lf 1022,2 hPa 0,0 l/m 0 min 0 min 0 W/m 0,0 km/h (0 Bft) 100,00 %
06.05.2018 05:42 9,2 C 7,2 C 5,6 C 76 % 0 lf 1022,1 hPa 0,0 l/m 0 min 0 min 0 W/m 0,0 km/h (0 Bft) 95,74 %
06.05.2018 05:44 9,2 C 7,2 C 5,6 C 76 % 0 lf 1022,0 hPa 0,0 l/m 0 min 0 min 0 W/m 0,0 km/h (0 Bft) 97,87 %
06.05.2018 05:46 9,1 C 7,8 C 5,6 C 77 % 0 lf 1022,0 hPa 0,0 l/m 0 min 0 min 0 W/m 4,5 km/h (1 Bft) 95,74 %
06.05.2018 05:48 9,1 C 7,8 C 5,6 C 77 % 0 lf 1022,0 hPa 0,0 l/m 0 min 0 min 0 W/m 4,5 km/h (1 Bft) 98,18 %
06.05.2018 05:50 9,1 C 7,2 C 5,6 C 77 % 0 lf 1021,9 hPa 0,0 l/m 0 min 0 min 1 W/m 4,5 km/h (1 Bft) 100,00 %
06.05.2018 05:52 9,1 C 7,2 C 5,6 C 77 % 0 lf 1022,0 hPa 0,0 l/m 0 min 0 min 5 W/m 4,5 km/h (1 Bft) 97,87 %
06.05.2018 05:54 9,0 C 7,2 C 5,6 C 77 % 0 lf 1022,0 hPa 0,0 l/m 0 min 0 min 5 W/m 4,5 km/h (1 Bft) 91,49 %
06.05.2018 05:56 8,9 C 7,2 C 5,6 C 77 % 0 lf 1022,1 hPa 0,0 l/m 0 min 0 min 5 W/m 4,5 km/h (1 Bft) 95,74 %
06.05.2018 05:58 8,9 C 7,2 C 5,6 C 77 % 0 lf 1022,0 hPa 0,0 l/m 0 min 0 min 6 W/m 2,3 km/h (1 Bft) 97,87 %
06.05.2018 06:00 8,9 C 7,2 C 5,6 C 77 % 0 lf 1022,1 hPa 0,0 l/m 0 min 0 min 7 W/m 2,3 km/h (1 Bft) 95,74 %
06.05.2018 06:02 8,9 C 7,2 C 5,6 C 77 % 0 lf 1022,1 hPa 0,0 l/m 0 min 0 min 8 W/m 0,0 km/h (0 Bft) 93,48 %
06.05.2018 06:04 8,8 C 7,2 C 5,6 C 77 % 0 lf 1022,2 hPa 0,0 l/m 0 min 0 min 9 W/m 0,0 km/h (0 Bft) 95,74 %
06.05.2018 06:08 8,8 C 7,2 C 5,6 C 77 % 0 lf 1022,2 hPa 0,0 l/m 0 min 0 min 10 W/m 4,5 km/h (1 Bft) 95,79 %
06.05.2018 06:10 8,7 C 7,2 C 5,6 C 78 % 0 lf 1022,2 hPa 0,0 l/m 0 min 0 min 11 W/m 2,3 km/h (1 Bft) 96,00 %
06.05.2018 06:12 8,7 C 7,8 C 5,6 C 78 % 0 lf 1022,1 hPa 0,0 l/m 0 min 0 min 12 W/m 0,0 km/h (0 Bft) 95,65 %
06.05.2018 06:14 8,7 C 7,8 C 5,6 C 78 % 0 lf 1022,1 hPa 0,0 l/m 0 min 0 min 14 W/m 0,0 km/h (0 Bft) 95,74 %
06.05.2018 06:16 8,7 C 7,8 C 5,6 C 79 % 0 lf 1022,1 hPa 0,0 l/m 0 min 0 min 14 W/m 2,3 km/h (1 Bft) 95,74 %
06.05.2018 06:18 8,7 C 7,8 C 5,6 C 80 % 0 lf 1022,1 hPa 0,0 l/m 0 min 0 min 15 W/m 0,0 km/h (0 Bft) 95,74 %
06.05.2018 06:20 8,7 C 7,8 C 5,6 C 80 % 0 lf 1022,1 hPa 0,0 l/m 0 min 0 min 17 W/m 2,3 km/h (1 Bft) 95,74 %
06.05.2018 06:22 8,7 C 7,8 C 6,1 C 81 % 0 lf 1022,1 hPa 0,0 l/m 0 min 0 min 21 W/m 4,5 km/h (1 Bft) 93,62 %
06.05.2018 06:24 8,7 C 7,8 C 6,1 C 81 % 0 lf 1022,1 hPa 0,0 l/m 0 min 0 min 22 W/m 4,5 km/h (1 Bft) 95,65 %
06.05.2018 06:26 8,6 C 8,3 C 6,1 C 82 % 0 lf 1022,1 hPa 0,0 l/m 0 min 0 min 19 W/m 4,5 km/h (1 Bft) 97,22 %
06.05.2018 06:28 8,6 C 8,3 C 6,1 C 82 % 0 lf 1022,0 hPa 0,0 l/m 0 min 0 min 20 W/m 0,0 km/h (0 Bft) 95,74 %
06.05.2018 06:30 8,6 C 8,3 C 6,1 C 82 % 0 lf 1022,0 hPa 0,0 l/m 0 min 0 min 26 W/m 0,0 km/h (0 Bft) 93,62 %
06.05.2018 06:32 8,6 C 8,3 C 6,1 C 82 % 0 lf 1022,1 hPa 0,0 l/m 0 min 0 min 33 W/m 0,0 km/h (0 Bft) 95,74 %
06.05.2018 06:34 8,6 C 8,3 C 6,1 C 82 % 0 lf 1022,1 hPa 0,0 l/m 0 min 0 min 30 W/m 0,0 km/h (0 Bft) 93,62 %
06.05.2018 06:36 8,6 C 8,3 C 6,1 C 83 % 0 lf 1022,1 hPa 0,0 l/m 0 min 0 min 28 W/m 0,0 km/h (0 Bft) 97,83 %
06.05.2018 06:38 8,6 C 8,3 C 6,1 C 83 % 0 lf 1022,1 hPa 0,0 l/m 2 min 0 min 45 W/m 0,0 km/h (0 Bft) 97,87 %
06.05.2018 06:40 8,5 C 8,3 C 6,1 C 83 % 0 lf 1022,1 hPa 0,0 l/m 2 min 0 min 51 W/m 0,0 km/h (0 Bft) 97,87 %
06.05.2018 06:42 8,5 C 8,3 C 6,1 C 83 % 0 lf 1022,1 hPa 0,0 l/m 2 min 0 min 55 W/m 0,0 km/h (0 Bft) 97,87 %
06.05.2018 06:44 8,5 C 8,3 C 6,1 C 83 % 0 lf 1022,1 hPa 0,0 l/m 2 min 0 min 60 W/m 0,0 km/h (0 Bft) 97,87 %
06.05.2018 06:46 8,5 C 8,3 C 6,1 C 84 % 0 lf 1022,1 hPa 0,0 l/m 2 min 0 min 65 W/m 4,5 km/h (1 Bft) 98,18 %
06.05.2018 06:48 8,5 C 8,3 C 6,1 C 84 % 0 lf 1022,1 hPa 0,0 l/m 2 min 0 min 70 W/m 6,8 km/h (2 Bft) 97,96 %
06.05.2018 06:50 8,5 C 8,9 C 6,1 C 84 % 0 lf 1022,2 hPa 0,0 l/m 2 min 0 min 74 W/m 4,5 km/h (1 Bft) 97,30 %
06.05.2018 06:52 8,5 C 8,9 C 6,7 C 84 % 0 lf 1022,1 hPa 0,0 l/m 2 min 0 min 79 W/m 4,5 km/h (1 Bft) 100,00 %
06.05.2018 06:54 8,5 C 8,9 C 6,7 C 84 % 0 lf 1022,1 hPa 0,0 l/m 2 min 0 min 84 W/m 4,5 km/h (1 Bft) 100,00 %
06.05.2018 06:56 8,5 C 8,9 C 6,7 C 84 % 0 lf 1022,1 hPa 0,0 l/m 2 min 0 min 89 W/m 6,8 km/h (2 Bft) 93,62 %
06.05.2018 06:58 8,6 C 8,9 C 6,7 C 84 % 0 lf 1022,2 hPa 0,0 l/m 2 min 0 min 94 W/m 4,5 km/h (1 Bft) 100,00 %
06.05.2018 07:00 8,6 C 8,9 C 6,7 C 84 % 0 lf 1022,2 hPa 0,0 l/m 2 min 0 min 99 W/m 4,5 km/h (1 Bft) 100,00 %
06.05.2018 07:02 8,6 C 8,9 C 6,7 C 84 % 0 lf 1022,2 hPa 0,0 l/m 2 min 0 min 105 W/m 4,5 km/h (1 Bft) 100,00 %
06.05.2018 07:04 8,6 C 8,9 C 6,7 C 84 % 0 lf 1022,2 hPa 0,0 l/m 2 min 0 min 111 W/m 2,3 km/h (1 Bft) 100,00 %
06.05.2018 07:06 8,6 C 8,9 C 6,7 C 85 % 0 lf 1022,2 hPa 0,0 l/m 2 min 0 min 116 W/m 2,3 km/h (1 Bft) 100,00 %
06.05.2018 07:08 8,6 C 9,4 C 6,7 C 85 % 0 lf 1022,3 hPa 0,0 l/m 2 min 0 min 121 W/m 11,3 km/h (2 Bft) 100,00 %
06.05.2018 07:10 8,7 C 9,4 C 7,2 C 85 % 0 lf 1022,2 hPa 0,0 l/m 2 min 0 min 127 W/m 11,3 km/h (2 Bft) 100,00 %
06.05.2018 07:12 8,7 C 9,4 C 7,2 C 85 % 0 lf 1022,4 hPa 0,0 l/m 2 min 0 min 134 W/m 11,3 km/h (2 Bft) 100,00 %
06.05.2018 07:14 8,7 C 9,4 C 7,2 C 85 % 0 lf 1022,4 hPa 0,0 l/m 2 min 0 min 139 W/m 11,3 km/h (2 Bft) 98,11 %
06.05.2018 07:16 8,7 C 10,0 C 7,2 C 85 % 0 lf 1022,4 hPa 0,0 l/m 2 min 0 min 145 W/m 6,8 km/h (2 Bft) 100,00 %
06.05.2018 07:18 8,7 C 10,0 C 7,8 C 85 % 0 lf 1022,4 hPa 0,0 l/m 2 min 0 min 151 W/m 13,5 km/h (3 Bft) 100,00 %
06.05.2018 07:20 8,8 C 10,0 C 7,8 C 85 % 0 lf 1022,4 hPa 0,0 l/m 2 min 0 min 157 W/m 6,8 km/h (2 Bft) 100,00 %
06.05.2018 07:22 8,9 C 10,6 C 8,3 C 85 % 0 lf 1022,3 hPa 0,0 l/m 2 min 0 min 163 W/m 11,3 km/h (2 Bft) 100,00 %
06.05.2018 07:24 8,9 C 10,6 C 8,3 C 85 % 0 lf 1022,3 hPa 0,0 l/m 2 min 0 min 170 W/m 15,8 km/h (3 Bft) 97,87 %
06.05.2018 07:26 9,0 C 10,6 C 8,3 C 85 % 0 lf 1022,3 hPa 0,0 l/m 2 min 0 min 177 W/m 13,5 km/h (3 Bft) 100,00 %
06.05.2018 07:28 9,1 C 10,6 C 8,3 C 85 % 0 lf 1022,3 hPa 0,0 l/m 2 min 0 min 183 W/m 13,5 km/h (3 Bft) 100,00 %
06.05.2018 07:30 9,1 C 10,6 C 8,9 C 85 % 0 lf 1022,4 hPa 0,0 l/m 2 min 0 min 189 W/m 11,3 km/h (2 Bft) 100,00 %
06.05.2018 07:32 9,2 C 10,6 C 8,9 C 85 % 0 lf 1022,4 hPa 0,0 l/m 2 min 0 min 195 W/m 11,3 km/h (2 Bft) 97,87 %
06.05.2018 07:34 9,3 C 11,1 C 8,9 C 85 % 0 lf 1022,4 hPa 0,0 l/m 2 min 0 min 201 W/m 11,3 km/h (2 Bft) 97,83 %
06.05.2018 07:36 9,3 C 11,1 C 8,3 C 84 % 0 lf 1022,4 hPa 0,0 l/m 2 min 0 min 206 W/m 6,8 km/h (2 Bft) 95,74 %
06.05.2018 07:38 9,4 C 11,1 C 8,3 C 84 % 0 lf 1022,4 hPa 0,0 l/m 2 min 0 min 211 W/m 4,5 km/h (1 Bft) 98,11 %
06.05.2018 07:40 9,4 C 11,1 C 8,3 C 84 % 0 lf 1022,4 hPa 0,0 l/m 2 min 0 min 217 W/m 6,8 km/h (2 Bft) 96,00 %
06.05.2018 07:42 9,5 C 11,1 C 8,9 C 84 % 0 lf 1022,4 hPa 0,0 l/m 2 min 0 min 222 W/m 4,5 km/h (1 Bft) 97,37 %
06.05.2018 07:44 9,6 C 11,1 C 8,3 C 84 % 0 lf 1022,4 hPa 0,0 l/m 2 min 0 min 228 W/m 4,5 km/h (1 Bft) 97,87 %
06.05.2018 07:46 9,7 C 11,7 C 8,9 C 84 % 0 lf 1022,4 hPa 0,0 l/m 2 min 0 min 235 W/m 6,8 km/h (2 Bft) 97,92 %
06.05.2018 07:48 9,7 C 11,7 C 9,4 C 84 % 0 lf 1022,5 hPa 0,0 l/m 2 min 0 min 240 W/m 11,3 km/h (2 Bft) 97,87 %
06.05.2018 07:50 9,9 C 11,7 C 9,4 C 84 % 0 lf 1022,4 hPa 0,0 l/m 2 min 0 min 246 W/m 11,3 km/h (2 Bft) 97,87 %
06.05.2018 07:52 10,0 C 12,2 C 10,0 C 83 % 0 lf 1022,4 hPa 0,0 l/m 2 min 0 min 251 W/m 15,8 km/h (3 Bft) 93,62 %
06.05.2018 07:54 10,2 C 12,2 C 10,0 C 83 % 0 lf 1022,4 hPa 0,0 l/m 2 min 0 min 257 W/m 15,8 km/h (3 Bft) 95,74 %
06.05.2018 07:56 10,3 C 12,2 C 10,0 C 82 % 0 lf 1022,4 hPa 0,0 l/m 2 min 0 min 264 W/m 6,8 km/h (2 Bft) 95,74 %
06.05.2018 07:58 10,4 C 12,2 C 10,0 C 82 % 0 lf 1022,4 hPa 0,0 l/m 2 min 0 min 269 W/m 15,8 km/h (3 Bft) 95,65 %
06.05.2018 08:00 10,5 C 12,2 C 10,0 C 81 % 0 lf 1022,4 hPa 0,0 l/m 2 min 0 min 274 W/m 11,3 km/h (2 Bft) 93,62 %
06.05.2018 08:02 10,6 C 12,2 C 10,6 C 81 % 0 lf 1022,5 hPa 0,0 l/m 2 min 0 min 280 W/m 13,5 km/h (3 Bft) 95,74 %
06.05.2018 08:04 10,7 C 12,2 C 10,0 C 81 % 0 lf 1022,5 hPa 0,0 l/m 2 min 0 min 286 W/m 9,0 km/h (2 Bft) 95,74 %
06.05.2018 08:06 10,8 C 12,8 C 10,6 C 80 % 0 lf 1022,4 hPa 0,0 l/m 2 min 0 min 292 W/m 9,0 km/h (2 Bft) 96,30 %
06.05.2018 08:08 10,9 C 12,8 C 10,6 C 80 % 0 lf 1022,4 hPa 0,0 l/m 2 min 0 min 297 W/m 11,3 km/h (2 Bft) 93,62 %
06.05.2018 08:10 11,0 C 12,8 C 10,6 C 80 % 0 lf 1022,4 hPa 0,0 l/m 2 min 0 min 303 W/m 6,8 km/h (2 Bft) 94,74 %
06.05.2018 08:12 11,1 C 12,8 C 10,6 C 79 % 0 lf 1022,5 hPa 0,0 l/m 2 min 0 min 309 W/m 9,0 km/h (2 Bft) 93,48 %
06.05.2018 08:14 11,2 C 12,8 C 10,6 C 79 % 0 lf 1022,5 hPa 0,0 l/m 2 min 0 min 315 W/m 6,8 km/h (2 Bft) 97,96 %
06.05.2018 08:16 11,3 C 13,3 C 10,6 C 79 % 0 lf 1022,5 hPa 0,0 l/m 2 min 0 min 320 W/m 9,0 km/h (2 Bft) 97,87 %
06.05.2018 08:18 11,4 C 13,3 C 10,6 C 78 % 0 lf 1022,5 hPa 0,0 l/m 2 min 0 min 327 W/m 6,8 km/h (2 Bft) 91,49 %
06.05.2018 08:20 11,6 C 13,3 C 10,6 C 78 % 0 lf 1022,5 hPa 0,0 l/m 2 min 0 min 332 W/m 11,3 km/h (2 Bft) 95,65 %
06.05.2018 08:22 11,7 C 13,3 C 10,6 C 78 % 0 lf 1022,5 hPa 0,0 l/m 2 min 0 min 339 W/m 9,0 km/h (2 Bft) 95,74 %
06.05.2018 08:24 11,8 C 13,9 C 10,6 C 77 % 0 lf 1022,5 hPa 0,0 l/m 2 min 0 min 344 W/m 11,3 km/h (2 Bft) 95,74 %
06.05.2018 08:26 11,9 C 13,9 C 11,1 C 77 % 0 lf 1022,4 hPa 0,0 l/m 2 min 0 min 350 W/m 11,3 km/h (2 Bft) 95,74 %
06.05.2018 08:28 12,0 C 13,9 C 11,1 C 77 % 0 lf 1022,4 hPa 0,0 l/m 2 min 0 min 356 W/m 18,0 km/h (3 Bft) 93,62 %
06.05.2018 08:30 12,1 C 14,4 C 11,1 C 76 % 0 lf 1022,4 hPa 0,0 l/m 2 min 0 min 362 W/m 11,3 km/h (2 Bft) 95,74 %
06.05.2018 08:32 12,2 C 16,7 C 11,7 C 75 % 0 lf 1022,4 hPa 0,0 l/m 2 min 0 min 368 W/m 15,8 km/h (3 Bft) 96,23 %
06.05.2018 08:34 12,3 C 18,3 C 11,7 C 75 % 0 lf 1022,4 hPa 0,0 l/m 2 min 0 min 373 W/m 15,8 km/h (3 Bft) 93,62 %
06.05.2018 08:36 12,5 C 20,6 C 11,7 C 74 % 0 lf 1022,4 hPa 0,0 l/m 2 min 0 min 380 W/m 11,3 km/h (2 Bft) 97,44 %
06.05.2018 08:38 12,6 C 22,2 C 11,7 C 74 % 0 lf 1022,5 hPa 0,0 l/m 2 min 0 min 386 W/m 6,8 km/h (2 Bft) 95,74 %
06.05.2018 08:40 12,8 C 21,7 C 11,7 C 74 % 0 lf 1022,5 hPa 0,0 l/m 2 min 0 min 390 W/m 9,0 km/h (2 Bft) 95,74 %
06.05.2018 08:42 12,9 C 21,7 C 11,7 C 73 % 0 lf 1022,4 hPa 0,0 l/m 2 min 0 min 397 W/m 15,8 km/h (3 Bft) 95,74 %
06.05.2018 08:44 13,2 C 22,8 C 12,2 C 72 % 0 lf 1022,5 hPa 0,0 l/m 2 min 0 min 402 W/m 15,8 km/h (3 Bft) 97,87 %
06.05.2018 08:46 13,3 C 22,8 C 12,2 C 72 % 0 lf 1022,5 hPa 0,0 l/m 2 min 0 min 408 W/m 13,5 km/h (3 Bft) 97,87 %
06.05.2018 08:48 13,6 C 22,8 C 12,2 C 70 % 0 lf 1022,6 hPa 0,0 l/m 2 min 0 min 414 W/m 20,3 km/h (4 Bft) 97,87 %
06.05.2018 08:50 13,8 C 22,2 C 12,8 C 69 % 0 lf 1022,6 hPa 0,0 l/m 2 min 0 min 420 W/m 22,5 km/h (4 Bft) 98,18 %
06.05.2018 08:52 14,1 C 22,2 C 12,8 C 68 % 0 lf 1022,6 hPa 0,0 l/m 2 min 0 min 425 W/m 15,8 km/h (3 Bft) 95,74 %
06.05.2018 08:54 14,2 C 22,2 C 12,8 C 67 % 0 lf 1022,6 hPa 0,0 l/m 2 min 0 min 430 W/m 18,0 km/h (3 Bft) 97,87 %
06.05.2018 08:56 14,5 C 23,3 C 12,8 C 66 % 0 lf 1022,6 hPa 0,0 l/m 2 min 0 min 437 W/m 13,5 km/h (3 Bft) 97,83 %
06.05.2018 08:58 14,7 C 22,8 C 13,3 C 66 % 0 lf 1022,6 hPa 0,0 l/m 2 min 0 min 442 W/m 15,8 km/h (3 Bft) 97,87 %
06.05.2018 09:00 14,9 C 22,2 C 13,3 C 64 % 0 lf 1022,6 hPa 0,0 l/m 2 min 0 min 447 W/m 13,5 km/h (3 Bft) 94,74 %
06.05.2018 09:02 15,2 C 22,8 C 13,9 C 63 % 0 lf 1022,7 hPa 0,0 l/m 2 min 0 min 453 W/m 22,5 km/h (4 Bft) 97,87 %
06.05.2018 09:04 15,4 C 22,2 C 13,9 C 62 % 0 lf 1022,7 hPa 0,0 l/m 2 min 0 min 458 W/m 18,0 km/h (3 Bft) 100,00 %
06.05.2018 09:08 15,8 C 22,2 C 14,4 C 60 % 0 lf 1022,7 hPa 0,0 l/m 4 min 0 min 466 W/m 27,0 km/h (4 Bft) 98,94 %
06.05.2018 09:10 16,0 C 22,8 C 14,4 C 60 % 0 lf 1022,7 hPa 0,0 l/m 2 min 0 min 475 W/m 20,3 km/h (4 Bft) 97,87 %
06.05.2018 09:12 16,1 C 23,3 C 13,9 C 60 % 0 lf 1022,8 hPa 0,0 l/m 2 min 0 min 480 W/m 18,0 km/h (3 Bft) 97,87 %
06.05.2018 09:14 16,3 C 24,4 C 13,9 C 60 % 0 lf 1022,8 hPa 0,0 l/m 2 min 0 min 485 W/m 18,0 km/h (3 Bft) 97,87 %
06.05.2018 09:16 16,4 C 25,0 C 13,9 C 60 % 0 lf 1022,6 hPa 0,0 l/m 2 min 0 min 490 W/m 24,8 km/h (4 Bft) 100,00 %
06.05.2018 09:18 16,5 C 25,0 C 13,9 C 59 % 0 lf 1022,8 hPa 0,0 l/m 2 min 0 min 496 W/m 22,5 km/h (4 Bft) 97,83 %
06.05.2018 09:20 16,6 C 24,4 C 14,4 C 58 % 0 lf 1022,7 hPa 0,0 l/m 2 min 0 min 502 W/m 13,5 km/h (3 Bft) 98,15 %
06.05.2018 09:22 16,7 C 23,3 C 14,4 C 58 % 0 lf 1022,7 hPa 0,0 l/m 2 min 0 min 508 W/m 18,0 km/h (3 Bft) 97,92 %
06.05.2018 09:24 16,9 C 23,3 C 15,0 C 58 % 0 lf 1022,7 hPa 0,0 l/m 2 min 0 min 513 W/m 22,5 km/h (4 Bft) 97,87 %
06.05.2018 09:26 17,0 C 23,9 C 15,0 C 57 % 0 lf 1022,7 hPa 0,0 l/m 2 min 0 min 519 W/m 22,5 km/h (4 Bft) 97,87 %
06.05.2018 09:28 17,1 C 23,9 C 15,0 C 57 % 0 lf 1022,7 hPa 0,0 l/m 2 min 0 min 523 W/m 18,0 km/h (3 Bft) 97,37 %
06.05.2018 09:30 17,2 C 24,4 C 15,0 C 58 % 0 lf 1022,7 hPa 0,0 l/m 2 min 0 min 529 W/m 13,5 km/h (3 Bft) 97,87 %
06.05.2018 09:32 17,3 C 25,6 C 15,0 C 58 % 0 lf 1022,7 hPa 0,0 l/m 2 min 0 min 534 W/m 13,5 km/h (3 Bft) 97,87 %
06.05.2018 09:34 17,4 C 25,6 C 15,0 C 58 % 0 lf 1022,7 hPa 0,0 l/m 2 min 0 min 540 W/m 20,3 km/h (4 Bft) 97,87 %
06.05.2018 09:38 17,7 C 26,1 C 15,6 C 58 % 0 lf 1022,7 hPa 0,0 l/m 4 min 0 min 547 W/m 20,3 km/h (4 Bft) 97,87 %
06.05.2018 09:40 17,8 C 26,1 C 16,1 C 57 % 0 lf 1022,7 hPa 0,0 l/m 2 min 0 min 555 W/m 18,0 km/h (3 Bft) 97,87 %
06.05.2018 09:42 17,9 C 25,6 C 17,2 C 57 % 0 lf 1022,7 hPa 0,0 l/m 2 min 0 min 561 W/m 9,0 km/h (2 Bft) 96,30 %
06.05.2018 09:44 18,1 C 25,0 C 17,8 C 56 % 0 lf 1022,7 hPa 0,0 l/m 2 min 0 min 567 W/m 20,3 km/h (4 Bft) 97,87 %
06.05.2018 09:46 18,2 C 26,7 C 20,0 C 57 % 0 lf 1022,7 hPa 0,0 l/m 2 min 0 min 571 W/m 18,0 km/h (3 Bft) 97,87 %
06.05.2018 09:48 18,4 C 25,6 C 21,7 C 56 % 0 lf 1022,8 hPa 0,0 l/m 2 min 0 min 576 W/m 18,0 km/h (3 Bft) 97,87 %
06.05.2018 09:50 18,5 C 24,4 C 22,8 C 55 % 0 lf 1022,7 hPa 0,0 l/m 2 min 0 min 581 W/m 20,3 km/h (4 Bft) 97,87 %
06.05.2018 09:52 18,6 C 24,4 C 22,8 C 55 % 0 lf 1022,7 hPa 0,0 l/m 2 min 0 min 586 W/m 20,3 km/h (4 Bft) 95,74 %
06.05.2018 09:54 18,7 C 25,0 C 23,3 C 54 % 0 lf 1022,8 hPa 0,0 l/m 2 min 0 min 590 W/m 27,0 km/h (4 Bft) 95,65 %
06.05.2018 09:56 18,7 C 23,9 C 23,9 C 54 % 0 lf 1022,8 hPa 0,0 l/m 2 min 0 min 596 W/m 20,3 km/h (4 Bft) 95,74 %
06.05.2018 09:58 18,8 C 24,4 C 24,4 C 53 % 0 lf 1022,8 hPa 0,0 l/m 2 min 0 min 601 W/m 20,3 km/h (4 Bft) 94,74 %
06.05.2018 10:00 18,8 C 25,6 C 24,4 C 54 % 0 lf 1022,7 hPa 0,0 l/m 2 min 0 min 606 W/m 20,3 km/h (4 Bft) 95,83 %
06.05.2018 10:02 18,9 C 23,9 C 25,0 C 53 % 0 lf 1022,7 hPa 0,0 l/m 2 min 0 min 610 W/m 22,5 km/h (4 Bft) 95,74 %
06.05.2018 10:04 18,9 C 24,4 C 25,0 C 54 % 0 lf 1022,6 hPa 0,0 l/m 2 min 0 min 615 W/m 15,8 km/h (3 Bft) 95,74 %
06.05.2018 10:06 19,0 C 24,4 C 25,0 C 53 % 0 lf 1022,7 hPa 0,0 l/m 2 min 0 min 620 W/m 18,0 km/h (3 Bft) 97,83 %
06.05.2018 10:08 19,1 C 25,0 C 25,0 C 54 % 0 lf 1022,7 hPa 0,0 l/m 2 min 0 min 626 W/m 15,8 km/h (3 Bft) 92,86 %
06.05.2018 10:10 19,1 C 25,0 C 25,0 C 53 % 0 lf 1022,7 hPa 0,0 l/m 2 min 0 min 631 W/m 22,5 km/h (4 Bft) 93,62 %
06.05.2018 10:12 19,2 C 25,6 C 25,0 C 53 % 0 lf 1022,7 hPa 0,0 l/m 2 min 0 min 636 W/m 20,3 km/h (4 Bft) 97,14 %
06.05.2018 10:14 19,2 C 25,6 C 25,6 C 53 % 0 lf 1022,7 hPa 0,0 l/m 2 min 0 min 642 W/m 20,3 km/h (4 Bft) 95,83 %
06.05.2018 10:16 19,3 C 25,0 C 25,6 C 53 % 0 lf 1022,7 hPa 0,0 l/m 2 min 0 min 645 W/m 11,3 km/h (2 Bft) 93,62 %
06.05.2018 10:18 19,4 C 23,9 C 25,6 C 52 % 0 lf 1022,7 hPa 0,0 l/m 2 min 0 min 649 W/m 20,3 km/h (4 Bft) 97,87 %
06.05.2018 10:20 19,4 C 25,0 C 25,6 C 52 % 0 lf 1022,6 hPa 0,0 l/m 2 min 0 min 653 W/m 22,5 km/h (4 Bft) 98,28 %
06.05.2018 10:22 19,5 C 26,1 C 25,6 C 52 % 0 lf 1022,7 hPa 0,0 l/m 2 min 0 min 657 W/m 18,0 km/h (3 Bft) 94,29 %
06.05.2018 10:24 19,6 C 27,8 C 26,1 C 54 % 0 lf 1022,7 hPa 0,0 l/m 2 min 0 min 663 W/m 15,8 km/h (3 Bft) 97,87 %
06.05.2018 10:26 19,7 C 26,7 C 26,1 C 52 % 0 lf 1022,7 hPa 0,0 l/m 2 min 0 min 670 W/m 20,3 km/h (4 Bft) 95,74 %
06.05.2018 10:28 19,8 C 26,7 C 26,7 C 51 % 0 lf 1022,7 hPa 0,0 l/m 2 min 0 min 673 W/m 18,0 km/h (3 Bft) 97,87 %
06.05.2018 10:30 19,9 C 27,2 C 27,2 C 51 % 0 lf 1022,7 hPa 0,0 l/m 2 min 0 min 679 W/m 11,3 km/h (2 Bft) 95,74 %
06.05.2018 10:32 20,1 C 28,9 C 27,8 C 51 % 0 lf 1022,7 hPa 0,0 l/m 2 min 0 min 683 W/m 11,3 km/h (2 Bft) 97,83 %
06.05.2018 10:34 20,2 C 27,2 C 28,3 C 51 % 0 lf 1022,7 hPa 0,0 l/m 2 min 0 min 688 W/m 15,8 km/h (3 Bft) 97,87 %
06.05.2018 10:36 20,3 C 26,7 C 27,8 C 50 % 0 lf 1022,6 hPa 0,0 l/m 2 min 0 min 692 W/m 15,8 km/h (3 Bft) 95,74 %
06.05.2018 10:38 20,4 C 27,2 C 27,8 C 50 % 0 lf 1022,6 hPa 0,0 l/m 2 min 0 min 696 W/m 18,0 km/h (3 Bft) 97,96 %
06.05.2018 10:40 20,5 C 26,1 C 27,2 C 49 % 0 lf 1022,7 hPa 0,0 l/m 2 min 0 min 700 W/m 20,3 km/h (4 Bft) 100,00 %
06.05.2018 10:42 20,6 C 26,1 C 26,7 C 48 % 0 lf 1022,6 hPa 0,0 l/m 2 min 0 min 705 W/m 20,3 km/h (4 Bft) 95,65 %
06.05.2018 10:44 20,6 C 26,1 C 27,2 C 50 % 0 lf 1022,7 hPa 0,0 l/m 2 min 0 min 709 W/m 18,0 km/h (3 Bft) 100,00 %
06.05.2018 10:46 20,7 C 26,7 C 27,8 C 50 % 0 lf 1022,7 hPa 0,0 l/m 2 min 0 min 713 W/m 15,8 km/h (3 Bft) 100,00 %
06.05.2018 10:48 20,8 C 26,7 C 28,3 C 49 % 0 lf 1022,7 hPa 0,0 l/m 2 min 0 min 717 W/m 13,5 km/h (3 Bft) 98,15 %
06.05.2018 10:50 20,9 C 30,0 C 28,9 C 50 % 0 lf 1022,8 hPa 0,0 l/m 2 min 0 min 721 W/m 13,5 km/h (3 Bft) 95,74 %
06.05.2018 10:52 20,9 C 27,8 C 28,3 C 48 % 0 lf 1022,7 hPa 0,0 l/m 2 min 0 min 726 W/m 22,5 km/h (4 Bft) 97,87 %
06.05.2018 10:54 21,0 C 26,7 C 27,8 C 48 % 0 lf 1022,8 hPa 0,0 l/m 2 min 0 min 729 W/m 18,0 km/h (3 Bft) 97,83 %
06.05.2018 10:56 21,1 C 26,7 C 27,2 C 48 % 0 lf 1022,8 hPa 0,0 l/m 2 min 0 min 733 W/m 18,0 km/h (3 Bft) 97,87 %
06.05.2018 10:58 21,2 C 27,2 C 27,2 C 47 % 0 lf 1022,8 hPa 0,0 l/m 2 min 0 min 737 W/m 18,0 km/h (3 Bft) 97,37 %
06.05.2018 11:00 21,2 C 27,8 C 27,8 C 47 % 0 lf 1022,9 hPa 0,0 l/m 2 min 0 min 741 W/m 22,5 km/h (4 Bft) 95,74 %
06.05.2018 11:02 21,3 C 26,7 C 27,2 C 46 % 0 lf 1022,9 hPa 0,0 l/m 2 min 0 min 745 W/m 15,8 km/h (3 Bft) 97,87 %
06.05.2018 11:04 21,4 C 28,3 C 27,8 C 47 % 0 lf 1022,9 hPa 0,0 l/m 2 min 0 min 749 W/m 6,8 km/h (2 Bft) 95,74 %
06.05.2018 11:08 21,6 C 29,4 C 27,8 C 47 % 0 lf 1022,9 hPa 0,0 l/m 4 min 0 min 755 W/m 11,3 km/h (2 Bft) 95,70 %
06.05.2018 11:10 21,7 C 29,4 C 27,8 C 48 % 0 lf 1022,8 hPa 0,0 l/m 2 min 0 min 760 W/m 6,8 km/h (2 Bft) 95,74 %
06.05.2018 11:12 21,8 C 30,0 C 26,7 C 48 % 0 lf 1022,8 hPa 0,0 l/m 2 min 0 min 764 W/m 15,8 km/h (3 Bft) 95,74 %
06.05.2018 11:14 21,9 C 30,0 C 25,6 C 48 % 0 lf 1022,8 hPa 0,0 l/m 2 min 0 min 769 W/m 13,5 km/h (3 Bft) 95,74 %
06.05.2018 11:16 22,0 C 29,4 C 24,4 C 46 % 0 lf 1022,8 hPa 0,0 l/m 2 min 0 min 772 W/m 18,0 km/h (3 Bft) 95,83 %
06.05.2018 11:18 22,1 C 28,3 C 23,9 C 45 % 0 lf 1022,8 hPa 0,0 l/m 2 min 0 min 775 W/m 20,3 km/h (4 Bft) 95,74 %
06.05.2018 11:20 22,2 C 27,2 C 23,3 C 44 % 0 lf 1022,7 hPa 0,0 l/m 2 min 0 min 776 W/m 15,8 km/h (3 Bft) 93,62 %
06.05.2018 11:22 22,2 C 29,4 C 24,4 C 45 % 0 lf 1022,7 hPa 0,0 l/m 2 min 0 min 781 W/m 20,3 km/h (4 Bft) 95,74 %
06.05.2018 11:24 22,3 C 28,3 C 25,6 C 45 % 0 lf 1022,7 hPa 0,0 l/m 2 min 0 min 786 W/m 24,8 km/h (4 Bft) 95,74 %
06.05.2018 11:26 22,3 C 27,2 C 26,7 C 44 % 0 lf 1022,8 hPa 0,0 l/m 2 min 0 min 788 W/m 22,5 km/h (4 Bft) 95,74 %
06.05.2018 11:28 22,4 C 27,2 C 27,2 C 45 % 0 lf 1022,6 hPa 0,0 l/m 2 min 0 min 789 W/m 20,3 km/h (4 Bft) 96,30 %
06.05.2018 11:30 22,4 C 27,8 C 27,8 C 45 % 0 lf 1022,5 hPa 0,0 l/m 2 min 0 min 793 W/m 20,3 km/h (4 Bft) 95,74 %
06.05.2018 11:32 22,4 C 27,8 C 28,3 C 44 % 0 lf 1022,5 hPa 0,0 l/m 2 min 0 min 796 W/m 15,8 km/h (3 Bft) 93,62 %
06.05.2018 11:34 22,5 C 29,4 C 28,9 C 44 % 0 lf 1022,5 hPa 0,0 l/m 2 min 0 min 800 W/m 9,0 km/h (2 Bft) 95,74 %
06.05.2018 11:36 22,6 C 29,4 C 30,0 C 46 % 0 lf 1022,6 hPa 0,0 l/m 2 min 0 min 803 W/m 18,0 km/h (3 Bft) 92,11 %
06.05.2018 11:38 22,7 C 31,1 C 29,4 C 45 % 0 lf 1022,6 hPa 0,0 l/m 2 min 0 min 807 W/m 11,3 km/h (2 Bft) 95,83 %
06.05.2018 11:40 22,8 C 31,1 C 29,4 C 45 % 0 lf 1022,5 hPa 0,0 l/m 2 min 0 min 811 W/m 22,5 km/h (4 Bft) 97,83 %
06.05.2018 11:42 22,9 C 31,1 C 28,9 C 43 % 0 lf 1022,5 hPa 0,0 l/m 2 min 0 min 813 W/m 18,0 km/h (3 Bft) 97,87 %
06.05.2018 11:44 23,0 C 32,8 C 28,9 C 45 % 0 lf 1022,5 hPa 0,0 l/m 2 min 0 min 816 W/m 27,0 km/h (4 Bft) 97,87 %
06.05.2018 11:46 23,1 C 33,3 C 28,9 C 45 % 0 lf 1022,5 hPa 0,0 l/m 2 min 0 min 807 W/m 24,8 km/h (4 Bft) 97,87 %
06.05.2018 11:48 23,2 C 31,1 C 29,4 C 44 % 0 lf 1022,4 hPa 0,0 l/m 2 min 0 min 745 W/m 24,8 km/h (4 Bft) 97,87 %
06.05.2018 11:50 23,3 C 29,4 C 30,0 C 43 % 0 lf 1022,4 hPa 0,0 l/m 2 min 0 min 614 W/m 18,0 km/h (3 Bft) 100,00 %
06.05.2018 11:52 23,4 C 29,4 C 29,4 C 44 % 0 lf 1022,4 hPa 0,0 l/m 2 min 0 min 427 W/m 22,5 km/h (4 Bft) 97,83 %
06.05.2018 11:54 23,5 C 28,9 C 28,9 C 43 % 0 lf 1022,3 hPa 0,0 l/m 0 min 0 min 303 W/m 29,3 km/h (5 Bft) 97,87 %
06.05.2018 11:56 23,6 C 28,9 C 28,9 C 43 % 0 lf 1022,3 hPa 0,0 l/m 0 min 0 min 325 W/m 22,5 km/h (4 Bft) 100,00 %
06.05.2018 11:58 23,6 C 29,4 C 28,9 C 45 % 0 lf 1022,3 hPa 0,0 l/m 2 min 0 min 384 W/m 22,5 km/h (4 Bft) 97,87 %
06.05.2018 12:00 23,7 C 29,4 C 29,4 C 44 % 0 lf 1022,4 hPa 0,0 l/m 2 min 0 min 526 W/m 20,3 km/h (4 Bft) 100,00 %
06.05.2018 12:02 23,7 C 29,4 C 28,9 C 45 % 0 lf 1022,4 hPa 0,0 l/m 2 min 0 min 652 W/m 18,0 km/h (3 Bft) 100,00 %
06.05.2018 12:04 23,8 C 28,9 C 28,9 C 44 % 0 lf 1022,4 hPa 0,0 l/m 2 min 0 min 776 W/m 20,3 km/h (4 Bft) 100,00 %
06.05.2018 12:08 23,8 C 28,9 C 29,4 C 44 % 0 lf 1022,3 hPa 0,0 l/m 4 min 0 min 814 W/m 20,3 km/h (4 Bft) 100,00 %
06.05.2018 12:10 23,8 C 28,9 C 30,0 C 44 % 0 lf 1022,3 hPa 0,0 l/m 0 min 0 min 149 W/m 18,0 km/h (3 Bft) 100,00 %
06.05.2018 12:12 23,9 C 28,3 C 28,9 C 43 % 0 lf 1022,2 hPa 0,0 l/m 0 min 0 min 306 W/m 20,3 km/h (4 Bft) 100,00 %
06.05.2018 12:14 23,9 C 28,3 C 28,9 C 44 % 0 lf 1022,2 hPa 0,0 l/m 2 min 0 min 847 W/m 18,0 km/h (3 Bft) 100,00 %
06.05.2018 12:16 23,9 C 28,3 C 28,3 C 44 % 0 lf 1022,2 hPa 0,0 l/m 2 min 0 min 850 W/m 22,5 km/h (4 Bft) 100,00 %
06.05.2018 12:18 23,9 C 29,4 C 28,3 C 44 % 0 lf 1022,2 hPa 0,0 l/m 2 min 0 min 853 W/m 18,0 km/h (3 Bft) 100,00 %
06.05.2018 12:20 23,9 C 31,1 C 28,3 C 45 % 0 lf 1022,1 hPa 0,0 l/m 2 min 0 min 859 W/m 15,8 km/h (3 Bft) 100,00 %
06.05.2018 12:22 24,1 C 30,6 C 28,9 C 46 % 0 lf 1022,1 hPa 0,0 l/m 2 min 0 min 861 W/m 13,5 km/h (3 Bft) 100,00 %
06.05.2018 12:24 24,1 C 30,0 C 29,4 C 46 % 0 lf 1022,1 hPa 0,0 l/m 2 min 0 min 865 W/m 18,0 km/h (3 Bft) 97,87 %
06.05.2018 12:26 24,2 C 30,0 C 30,0 C 45 % 0 lf 1022,0 hPa 0,0 l/m 2 min 0 min 870 W/m 15,8 km/h (3 Bft) 100,00 %
06.05.2018 12:28 24,2 C 31,1 C 30,6 C 46 % 0 lf 1022,0 hPa 0,0 l/m 2 min 0 min 874 W/m 13,5 km/h (3 Bft) 100,00 %
06.05.2018 12:30 24,3 C 31,1 C 30,6 C 46 % 0 lf 1022,0 hPa 0,0 l/m 2 min 0 min 872 W/m 20,3 km/h (4 Bft) 95,74 %
06.05.2018 12:32 24,4 C 32,2 C 30,0 C 46 % 0 lf 1022,0 hPa 0,0 l/m 2 min 0 min 871 W/m 13,5 km/h (3 Bft) 93,62 %
06.05.2018 12:34 24,4 C 32,2 C 30,6 C 46 % 0 lf 1022,0 hPa 0,0 l/m 2 min 0 min 871 W/m 9,0 km/h (2 Bft) 97,87 %
06.05.2018 12:38 24,6 C 32,8 C 30,6 C 47 % 0 lf 1021,9 hPa 0,0 l/m 4 min 0 min 876 W/m 13,5 km/h (3 Bft) 95,70 %
06.05.2018 12:40 24,7 C 31,1 C 31,1 C 45 % 0 lf 1021,9 hPa 0,0 l/m 2 min 0 min 879 W/m 18,0 km/h (3 Bft) 95,74 %
06.05.2018 12:42 24,7 C 30,6 C 30,6 C 45 % 0 lf 1021,9 hPa 0,0 l/m 2 min 0 min 879 W/m 22,5 km/h (4 Bft) 95,74 %
06.05.2018 12:44 24,8 C 30,6 C 30,0 C 44 % 0 lf 1021,8 hPa 0,0 l/m 2 min 0 min 879 W/m 9,0 km/h (2 Bft) 95,74 %
06.05.2018 12:46 24,8 C 31,7 C 28,3 C 44 % 0 lf 1021,7 hPa 0,0 l/m 2 min 0 min 883 W/m 22,5 km/h (4 Bft) 95,74 %
06.05.2018 12:48 24,8 C 31,7 C 28,3 C 45 % 0 lf 1021,7 hPa 0,0 l/m 2 min 0 min 886 W/m 22,5 km/h (4 Bft) 94,55 %
06.05.2018 12:50 24,9 C 30,6 C 27,2 C 43 % 0 lf 1021,8 hPa 0,0 l/m 2 min 0 min 884 W/m 15,8 km/h (3 Bft) 94,74 %
06.05.2018 12:52 24,9 C 31,1 C 26,1 C 43 % 0 lf 1021,8 hPa 0,0 l/m 2 min 0 min 882 W/m 20,3 km/h (4 Bft) 95,65 %
06.05.2018 12:54 25,0 C 32,8 C 25,6 C 45 % 0 lf 1021,8 hPa 0,0 l/m 2 min 0 min 884 W/m 6,8 km/h (2 Bft) 93,62 %
06.05.2018 12:56 25,1 C 33,3 C 25,6 C 44 % 0 lf 1021,8 hPa 0,0 l/m 2 min 0 min 886 W/m 20,3 km/h (4 Bft) 93,62 %
06.05.2018 12:58 25,1 C 31,7 C 25,6 C 44 % 0 lf 1021,8 hPa 0,0 l/m 2 min 0 min 884 W/m 24,8 km/h (4 Bft) 95,74 %
06.05.2018 13:00 25,2 C 32,8 C 25,0 C 45 % 0 lf 1021,7 hPa 0,0 l/m 2 min 0 min 884 W/m 11,3 km/h (2 Bft) 95,74 %
06.05.2018 13:02 25,2 C 35,0 C 24,4 C 45 % 0 lf 1021,7 hPa 0,0 l/m 2 min 0 min 885 W/m 11,3 km/h (2 Bft) 93,62 %
06.05.2018 13:04 25,3 C 33,3 C 24,4 C 43 % 0 lf 1021,7 hPa 0,0 l/m 2 min 0 min 888 W/m 11,3 km/h (2 Bft) 95,65 %
06.05.2018 13:06 25,3 C 31,1 C 25,0 C 43 % 0 lf 1021,7 hPa 0,0 l/m 2 min 0 min 891 W/m 20,3 km/h (4 Bft) 91,49 %
06.05.2018 13:08 25,3 C 31,1 C 25,0 C 43 % 0 lf 1021,7 hPa 0,0 l/m 2 min 0 min 891 W/m 20,3 km/h (4 Bft) 97,87 %
_ Min-Zeit 06:40 05:28 05:32 17:40 14:00 18:58 - - - - 04:06 04:05
Minimum _ 8,5 C 7,2 C 5,6 C 38 % 0 lf 1020,8 hPa - - - - 0,0 km/h (0 Bft) 33,33 %
_ Max-Zeit 13:04 13:02 16:06 07:06 14:00 14:00 14:00 18:08 14:00 13:06 18:58 14:48
Maximum _ 25,3 C 35,0 C 32,8 C 85 % 0 lf 1022,9 hPa 0,0 l/m 4 min 0 min 891 W/m 38,3 km/h
O-NO (5 Bft)
100,00 %
Durchschnitt _ 18,1 C 19,6 C 17,1 C 56 % 0 lf 1022,1 hPa #0,0 l/m #6:24 h #0 min. 470 W/m 15,8 km/h (3 Bft) 96,66 %
© 2018 W. Hausmann